GFSWCAN_prec_precacc_060.txt.gz
Total_Precipitation_Accumulation
0.56 0.59 0.52 0.51 0.43 0.45 0.60 0.67 0.54 0.54 0.55 0.46 0.47 0.44 0.38 0.44 0.70 1.17 2.20 1.19 1.71 1.76 0.49 0.22 0.23 0.20 0.06 0.05 0.08 0.03 0.15 0.14 0.30 0.30 0.08 0.03 0.01 0.01 0.01 0.05 0.15 0.19 0.18 0.21 0.26 0.26 0.09 0.01 0.03 0.04 0.02 0.00 0.00 0.00
0.81 0.64 0.57 0.53 0.42 0.50 0.60 0.62 0.49 0.52 0.48 0.40 0.41 0.44 0.37 0.39 0.66 0.94 1.74 1.20 1.23 1.78 1.05 0.30 0.22 0.17 0.09 0.01 0.02 0.03 0.05 0.04 0.08 0.24 0.11 0.09 0.03 0.02 0.00 0.00 0.02 0.08 0.13 0.16 0.15 0.16 0.06 0.04 0.06 0.10 0.08 0.04 0.01 0.01
1.10 0.70 0.56 0.48 0.46 0.57 0.60 0.51 0.40 0.42 0.45 0.42 0.37 0.38 0.47 0.56 0.66 0.80 1.10 1.15 1.78 2.36 1.21 0.61 0.28 0.13 0.17 0.05 0.04 0.15 0.04 0.01 0.04 0.07 0.10 0.12 0.09 0.03 0.01 0.00 0.00 0.00 0.01 0.02 0.03 0.01 0.00 0.03 0.04 0.02 0.01 0.01 0.02 0.02
0.90 0.72 0.49 0.46 0.47 0.55 0.50 0.40 0.38 0.42 0.44 0.47 0.37 0.42 0.51 0.86 0.73 0.71 0.79 1.40 1.92 1.75 1.41 0.68 0.48 0.25 0.17 0.19 0.11 0.10 0.08 0.06 0.11 0.20 0.22 0.20 0.15 0.04 0.02 0.02 0.01 0.00 0.03 0.03 0.01 0.00 0.00 0.02 0.02 0.02 0.01 0.00 0.00 0.01
0.72 0.58 0.47 0.42 0.43 0.48 0.47 0.44 0.42 0.44 0.52 0.49 0.47 0.52 0.74 0.90 0.96 1.05 0.77 1.38 1.76 1.79 1.39 0.78 0.41 0.32 0.22 0.17 0.14 0.10 0.12 0.17 0.22 0.38 0.39 0.17 0.06 0.05 0.04 0.05 0.01 0.02 0.04 0.05 0.01 0.03 0.03 0.00 0.01 0.03 0.01 0.00 0.00 0.00
0.61 0.54 0.44 0.43 0.39 0.42 0.37 0.44 0.47 0.49 0.46 0.52 0.61 0.76 0.68 0.76 1.56 1.87 2.04 1.57 1.30 1.38 1.52 1.13 0.43 0.22 0.28 0.28 0.31 0.15 0.15 0.23 0.30 0.31 0.29 0.24 0.13 0.18 0.09 0.02 0.01 0.03 0.07 0.09 0.04 0.03 0.04 0.03 0.02 0.02 0.01 0.01 0.02 0.01
0.62 0.56 0.44 0.36 0.28 0.26 0.31 0.37 0.39 0.40 0.57 0.67 0.67 0.64 0.67 1.17 1.57 1.38 1.34 1.11 0.77 1.04 1.37 1.14 0.82 0.37 0.36 0.48 0.85 0.59 0.41 0.41 0.53 0.44 0.29 0.17 0.17 0.27 0.19 0.07 0.01 0.01 0.02 0.03 0.01 0.02 0.05 0.06 0.05 0.03 0.04 0.05 0.03 0.02
0.53 0.42 0.35 0.29 0.24 0.27 0.31 0.35 0.41 0.49 0.55 0.53 0.56 0.74 0.89 1.07 1.10 1.15 0.71 0.68 0.62 0.73 0.96 1.12 1.06 0.89 0.55 0.59 0.83 0.87 0.61 0.70 0.72 0.58 0.34 0.16 0.22 0.40 0.51 0.18 0.04 0.02 0.00 0.00 0.00 0.00 0.00 0.02 0.04 0.04 0.05 0.04 0.03 0.02
0.37 0.31 0.28 0.28 0.31 0.35 0.39 0.38 0.41 0.47 0.53 0.73 1.01 1.17 1.38 1.69 1.73 1.11 0.77 0.84 0.80 0.77 0.82 0.58 0.91 1.02 0.88 0.60 0.75 0.82 0.83 0.77 0.45 0.39 0.42 0.39 0.24 0.46 0.40 0.16 0.11 0.05 0.01 0.00 0.00 0.00 0.00 0.00 0.01 0.02 0.02 0.03 0.04 0.11
0.29 0.29 0.30 0.28 0.31 0.29 0.28 0.30 0.36 0.43 0.57 0.79 1.02 1.40 2.04 1.52 1.28 1.14 1.62 1.56 1.07 0.69 0.51 0.39 0.49 0.96 0.93 0.77 0.75 0.87 0.89 0.70 0.45 0.36 0.36 0.51 0.50 0.23 0.06 0.10 0.09 0.09 0.11 0.06 0.02 0.01 0.01 0.02 0.04 0.08 0.11 0.11 0.11 0.12
0.33 0.31 0.32 0.28 0.30 0.38 0.38 0.37 0.36 0.42 0.61 0.78 1.14 1.55 1.40 1.23 1.34 1.42 1.47 1.24 0.85 0.49 0.24 0.15 0.25 0.78 0.84 0.77 0.87 0.65 1.10 0.99 0.50 0.36 0.39 0.45 0.42 0.23 0.09 0.05 0.05 0.07 0.05 0.04 0.04 0.04 0.05 0.08 0.14 0.16 0.14 0.09 0.05 0.02
0.29 0.21 0.17 0.19 0.25 0.33 0.31 0.25 0.29 0.41 0.58 0.80 1.00 0.98 1.27 1.38 1.11 0.98 0.88 0.77 0.41 0.21 0.15 0.11 0.11 0.29 0.77 0.86 0.95 0.62 0.72 0.96 1.08 0.52 0.58 0.55 0.31 0.16 0.09 0.09 0.09 0.10 0.09 0.09 0.11 0.15 0.21 0.23 0.23 0.17 0.10 0.06 0.07 0.10
0.27 0.22 0.18 0.15 0.10 0.12 0.18 0.32 0.53 0.63 0.95 1.04 0.88 1.00 1.06 0.97 0.97 0.88 0.76 0.59 0.43 0.14 0.13 0.18 0.23 0.30 0.52 0.92 1.04 0.86 0.93 0.79 0.98 1.14 0.59 0.47 0.24 0.20 0.30 0.35 0.36 0.30 0.29 0.30 0.32 0.29 0.23 0.20 0.18 0.19 0.25 0.34 0.37 0.45
0.14 0.16 0.18 0.21 0.31 0.47 0.51 0.54 0.91 1.16 0.99 0.74 0.62 0.78 0.80 0.82 0.66 0.63 0.64 0.64 0.42 0.25 0.18 0.22 0.42 0.57 0.49 0.84 1.21 1.21 1.30 0.97 0.93 0.71 0.47 0.45 0.50 0.65 0.58 0.46 0.39 0.45 0.46 0.47 0.53 0.52 0.52 0.53 0.64 0.73 0.78 0.83 0.71 0.76
0.12 0.13 0.25 0.53 0.59 0.44 0.39 0.58 0.83 0.72 0.49 0.50 0.38 0.49 0.60 0.72 0.56 0.61 0.60 0.45 0.41 0.44 0.54 0.70 0.94 0.76 0.65 0.93 0.94 0.89 0.82 0.66 0.55 0.59 0.68 0.84 0.82 0.78 0.63 0.56 0.55 0.58 0.59 0.60 0.64 0.62 0.70 0.70 0.58 0.67 0.73 0.65 0.52 0.52
0.09 0.16 0.31 0.36 0.26 0.29 0.37 0.59 0.67 0.30 0.32 0.36 0.49 0.64 0.58 0.61 0.64 0.64 0.56 0.48 0.52 0.71 0.80 0.79 0.84 0.78 0.89 0.70 0.49 0.52 0.49 0.60 0.78 0.69 0.82 0.88 0.80 0.82 0.78 0.72 0.72 0.75 0.70 0.70 0.71 0.64 0.57 0.50 0.42 0.45 0.42 0.40 0.40 0.31
0.12 0.16 0.22 0.18 0.21 0.26 0.32 0.38 0.33 0.32 0.37 0.42 0.80 0.93 0.82 0.71 0.78 0.81 0.75 0.66 0.59 0.52 0.51 0.47 0.51 0.56 0.51 0.43 0.50 0.52 0.71 0.78 0.80 0.81 0.84 0.87 0.89 0.93 0.93 0.82 0.75 0.62 0.56 0.58 0.57 0.53 0.52 0.51 0.34 0.20 0.25 0.33 0.23 0.20
0.22 0.18 0.13 0.13 0.16 0.14 0.13 0.10 0.11 0.13 0.33 0.63 0.70 0.92 0.65 0.74 0.71 0.65 0.66 0.57 0.45 0.41 0.41 0.48 0.41 0.44 0.55 0.56 0.66 0.75 0.84 0.88 0.93 0.90 0.87 0.90 0.86 0.79 0.71 0.60 0.57 0.47 0.44 0.45 0.39 0.36 0.33 0.27 0.20 0.25 0.22 0.19 0.12 0.11
0.50 0.25 0.25 0.34 0.27 0.25 0.11 0.09 0.01 0.17 0.52 0.58 0.58 0.46 0.37 0.47 0.48 0.45 0.35 0.25 0.17 0.15 0.17 0.23 0.32 0.53 0.70 0.77 0.82 0.83 0.82 0.75 0.76 0.73 0.66 0.69 0.70 0.66 0.61 0.50 0.46 0.45 0.36 0.34 0.25 0.21 0.21 0.16 0.17 0.15 0.13 0.08 0.10 0.14
0.53 0.41 0.38 0.35 0.20 0.21 0.06 0.05 0.00 0.09 0.28 0.34 0.28 0.12 0.12 0.19 0.14 0.09 0.08 0.05 0.06 0.06 0.10 0.24 0.53 0.65 0.61 0.65 0.64 0.65 0.65 0.60 0.47 0.34 0.40 0.47 0.53 0.41 0.45 0.39 0.38 0.32 0.23 0.20 0.17 0.16 0.13 0.13 0.15 0.15 0.14 0.13 0.12 0.13
0.32 0.25 0.18 0.12 0.09 0.06 0.05 0.04 0.05 0.05 0.10 0.13 0.07 0.02 0.03 0.01 0.02 0.02 0.01 0.00 0.02 0.08 0.33 0.52 0.52 0.55 0.43 0.41 0.37 0.34 0.38 0.36 0.36 0.28 0.32 0.39 0.43 0.29 0.30 0.33 0.30 0.25 0.22 0.24 0.21 0.23 0.18 0.19 0.18 0.14 0.13 0.09 0.08 0.08
0.09 0.04 0.01 0.02 0.06 0.06 0.03 0.00 0.03 0.03 0.01 0.03 0.04 0.02 0.02 0.03 0.02 0.02 0.02 0.05 0.25 0.44 0.48 0.37 0.32 0.27 0.20 0.22 0.21 0.16 0.22 0.18 0.24 0.34 0.43 0.35 0.36 0.34 0.37 0.41 0.30 0.28 0.27 0.27 0.24 0.20 0.17 0.14 0.10 0.07 0.05 0.05 0.04 0.03
0.00 0.01 0.02 0.02 0.06 0.05 0.05 0.01 0.03 0.02 0.01 0.01 0.03 0.02 0.02 0.02 0.03 0.02 0.05 0.15 0.40 0.48 0.37 0.20 0.16 0.14 0.17 0.27 0.19 0.16 0.14 0.10 0.12 0.18 0.23 0.26 0.28 0.30 0.29 0.29 0.27 0.24 0.20 0.18 0.14 0.11 0.08 0.04 0.01 0.01 0.01 0.03 0.03 0.02
0.01 0.02 0.10 0.12 0.06 0.07 0.05 0.05 0.04 0.04 0.02 0.01 0.02 0.05 0.05 0.03 0.01 0.03 0.08 0.19 0.38 0.26 0.17 0.22 0.17 0.14 0.14 0.15 0.17 0.21 0.26 0.20 0.21 0.23 0.24 0.18 0.17 0.19 0.14 0.12 0.08 0.07 0.06 0.04 0.02 0.01 0.01 0.01 0.02 0.03 0.03 0.02 0.01 0.02
0.07 0.04 0.12 0.14 0.11 0.08 0.04 0.03 0.05 0.04 0.03 0.02 0.03 0.06 0.04 0.02 0.04 0.05 0.08 0.26 0.23 0.22 0.23 0.24 0.18 0.17 0.17 0.20 0.22 0.21 0.17 0.12 0.10 0.10 0.12 0.08 0.08 0.05 0.02 0.00 0.01 0.01 0.00 0.01 0.02 0.02 0.02 0.02 0.02 0.01 0.01 0.03 0.05 0.06
0.22 0.12 0.08 0.08 0.06 0.07 0.04 0.03 0.03 0.03 0.03 0.08 0.11 0.07 0.05 0.07 0.07 0.13 0.21 0.31 0.25 0.26 0.29 0.30 0.26 0.19 0.17 0.15 0.14 0.12 0.08 0.06 0.03 0.02 0.02 0.01 0.01 0.01 0.01 0.01 0.01 0.02 0.01 0.03 0.05 0.04 0.02 0.01 0.01 0.02 0.04 0.04 0.05 0.08
0.16 0.12 0.06 0.07 0.09 0.13 0.20 0.17 0.16 0.16 0.15 0.16 0.13 0.09 0.15 0.19 0.16 0.26 0.33 0.34 0.31 0.33 0.26 0.20 0.13 0.10 0.12 0.11 0.08 0.07 0.03 0.01 0.01 0.01 0.01 0.02 0.02 0.01 0.01 0.03 0.04 0.04 0.02 0.02 0.03 0.04 0.05 0.05 0.04 0.04 0.05 0.05 0.07 0.09
0.10 0.08 0.09 0.11 0.18 0.22 0.21 0.19 0.23 0.27 0.28 0.22 0.17 0.15 0.17 0.15 0.22 0.32 0.34 0.37 0.24 0.17 0.10 0.07 0.05 0.03 0.04 0.05 0.06 0.05 0.03 0.01 0.01 0.01 0.02 0.05 0.02 0.00 0.01 0.02 0.02 0.01 0.01 0.02 0.02 0.03 0.04 0.08 0.08 0.08 0.07 0.08 0.09 0.11
0.09 0.11 0.11 0.11 0.07 0.07 0.12 0.16 0.18 0.19 0.18 0.14 0.10 0.11 0.13 0.17 0.29 0.29 0.31 0.26 0.18 0.12 0.09 0.07 0.10 0.06 0.04 0.02 0.01 0.01 0.00 0.00 0.00 0.00 0.00 0.02 0.03 0.03 0.01 0.01 0.02 0.01 0.02 0.02 0.01 0.01 0.05 0.10 0.10 0.12 0.10 0.11 0.11 0.11
0.02 0.02 0.02 0.01 0.03 0.09 0.14 0.09 0.13 0.11 0.06 0.05 0.04 0.07 0.09 0.23 0.36 0.26 0.19 0.16 0.12 0.12 0.11 0.09 0.08 0.04 0.04 0.03 0.02 0.02 0.03 0.01 0.00 0.00 0.01 0.02 0.03 0.03 0.02 0.03 0.02 0.02 0.03 0.02 0.01 0.01 0.02 0.02 0.04 0.08 0.05 0.07 0.10 0.09
0.01 0.01 0.01 0.02 0.07 0.10 0.09 0.04 0.07 0.07 0.07 0.05 0.04 0.05 0.10 0.18 0.20 0.17 0.13 0.15 0.09 0.07 0.05 0.03 0.02 0.01 0.01 0.01 0.02 0.01 0.02 0.02 0.02 0.01 0.01 0.02 0.03 0.03 0.03 0.02 0.03 0.03 0.03 0.03 0.02 0.03 0.04 0.02 0.05 0.06 0.04 0.04 0.06 0.07
0.01 0.02 0.01 0.06 0.14 0.09 0.09 0.12 0.10 0.12 0.09 0.07 0.08 0.06 0.09 0.08 0.07 0.09 0.09 0.08 0.05 0.04 0.03 0.03 0.03 0.04 0.02 0.01 0.01 0.01 0.02 0.01 0.01 0.01 0.02 0.03 0.02 0.02 0.02 0.02 0.02 0.03 0.03 0.03 0.03 0.05 0.04 0.04 0.05 0.05 0.06 0.06 0.06 0.06
0.01 0.00 0.01 0.01 0.05 0.08 0.07 0.07 0.05 0.05 0.06 0.06 0.10 0.10 0.10 0.08 0.08 0.12 0.10 0.05 0.06 0.03 0.01 0.02 0.02 0.03 0.03 0.01 0.00 0.00 0.00 0.00 0.00 0.01 0.02 0.03 0.02 0.01 0.01 0.01 0.02 0.02 0.01 0.02 0.03 0.05 0.04 0.04 0.05 0.05 0.04 0.04 0.04 0.04

GFSWCAN_prec_precacc_066.txt.gz
Total_Precipitation_Accumulation
0.61 0.61 0.54 0.53 0.47 0.49 0.64 0.71 0.57 0.57 0.57 0.49 0.53 0.54 0.51 0.61 0.89 1.47 2.55 1.27 1.85 2.00 0.55 0.23 0.23 0.20 0.07 0.07 0.12 0.06 0.26 0.21 0.33 0.34 0.10 0.04 0.02 0.01 0.01 0.06 0.16 0.19 0.19 0.22 0.28 0.29 0.10 0.01 0.03 0.04 0.02 0.00 0.00 0.00
0.83 0.66 0.60 0.57 0.46 0.53 0.64 0.65 0.53 0.55 0.51 0.44 0.43 0.47 0.45 0.53 0.91 1.29 2.17 1.35 1.26 1.96 1.19 0.33 0.23 0.18 0.10 0.01 0.05 0.06 0.08 0.05 0.09 0.25 0.11 0.09 0.03 0.02 0.00 0.00 0.02 0.09 0.14 0.17 0.16 0.16 0.07 0.04 0.06 0.10 0.08 0.04 0.01 0.01
1.13 0.75 0.63 0.54 0.49 0.60 0.63 0.54 0.44 0.46 0.48 0.45 0.40 0.40 0.50 0.62 0.85 1.31 1.55 1.30 1.97 2.75 1.37 0.67 0.32 0.14 0.17 0.06 0.05 0.16 0.06 0.02 0.04 0.08 0.11 0.14 0.09 0.03 0.01 0.00 0.00 0.00 0.01 0.02 0.03 0.01 0.00 0.03 0.04 0.02 0.01 0.01 0.02 0.02
1.02 0.79 0.52 0.47 0.49 0.57 0.52 0.41 0.39 0.46 0.48 0.50 0.41 0.46 0.54 0.89 0.86 1.21 1.18 1.58 2.14 1.98 1.51 0.71 0.48 0.27 0.18 0.21 0.13 0.11 0.09 0.07 0.11 0.21 0.23 0.22 0.16 0.05 0.02 0.03 0.01 0.00 0.03 0.03 0.01 0.00 0.00 0.02 0.02 0.02 0.01 0.00 0.00 0.01
0.75 0.60 0.48 0.44 0.44 0.50 0.49 0.49 0.47 0.46 0.55 0.53 0.49 0.57 0.80 0.94 1.12 1.35 0.99 1.52 1.88 1.90 1.49 0.80 0.41 0.32 0.22 0.18 0.15 0.11 0.13 0.21 0.26 0.42 0.42 0.19 0.08 0.07 0.05 0.06 0.02 0.02 0.04 0.05 0.01 0.03 0.03 0.00 0.01 0.03 0.01 0.00 0.00 0.00
0.62 0.55 0.47 0.45 0.41 0.43 0.38 0.46 0.54 0.59 0.50 0.56 0.65 0.80 0.78 0.88 1.72 2.19 2.53 1.99 1.46 1.53 1.66 1.20 0.44 0.22 0.28 0.28 0.32 0.16 0.19 0.29 0.36 0.35 0.31 0.28 0.15 0.21 0.12 0.03 0.01 0.03 0.07 0.09 0.04 0.03 0.04 0.03 0.02 0.02 0.01 0.01 0.02 0.01
0.65 0.58 0.46 0.38 0.31 0.29 0.33 0.40 0.42 0.47 0.67 0.72 0.74 0.71 0.80 1.46 1.80 1.46 1.42 1.23 0.86 1.14 1.51 1.23 0.83 0.38 0.36 0.49 0.86 0.62 0.47 0.53 0.64 0.53 0.32 0.18 0.19 0.33 0.21 0.07 0.02 0.01 0.02 0.03 0.01 0.02 0.05 0.06 0.05 0.03 0.04 0.05 0.04 0.03
0.56 0.43 0.37 0.33 0.31 0.29 0.33 0.41 0.46 0.55 0.66 0.61 0.70 0.87 1.20 1.43 1.26 1.22 0.72 0.68 0.63 0.83 1.04 1.19 1.12 0.93 0.56 0.62 0.87 0.89 0.67 0.79 0.93 0.78 0.44 0.18 0.26 0.47 0.56 0.19 0.04 0.02 0.01 0.01 0.00 0.00 0.00 0.02 0.04 0.04 0.05 0.07 0.12 0.15
0.39 0.33 0.31 0.30 0.35 0.40 0.45 0.44 0.48 0.60 0.65 0.93 1.33 1.71 2.09 2.16 2.15 1.22 0.78 0.86 0.84 0.85 0.86 0.61 0.99 1.05 0.90 0.62 0.80 0.86 0.88 0.91 0.57 0.54 0.57 0.52 0.34 0.52 0.44 0.17 0.11 0.05 0.01 0.00 0.00 0.00 0.00 0.00 0.01 0.02 0.03 0.04 0.07 0.16
0.33 0.34 0.37 0.37 0.37 0.36 0.38 0.44 0.58 0.71 0.93 1.24 1.43 1.88 2.64 1.91 1.39 1.25 1.88 1.84 1.25 0.75 0.52 0.40 0.53 1.02 1.05 0.81 0.80 0.92 0.92 0.73 0.51 0.41 0.42 0.63 0.63 0.27 0.07 0.10 0.09 0.09 0.11 0.06 0.03 0.01 0.01 0.03 0.06 0.09 0.14 0.14 0.15 0.16
0.38 0.37 0.39 0.38 0.42 0.51 0.52 0.54 0.54 0.59 0.75 0.93 1.33 1.89 1.87 1.46 1.47 1.58 1.63 1.32 0.88 0.50 0.25 0.18 0.32 0.86 1.05 0.83 0.90 0.68 1.13 1.01 0.52 0.40 0.43 0.49 0.45 0.25 0.10 0.05 0.05 0.07 0.05 0.05 0.04 0.06 0.07 0.11 0.17 0.21 0.21 0.18 0.15 0.13
0.31 0.29 0.27 0.27 0.32 0.42 0.41 0.36 0.35 0.44 0.62 0.81 1.15 1.33 1.60 1.59 1.23 1.00 0.90 0.81 0.43 0.32 0.31 0.22 0.21 0.40 0.97 0.94 1.01 0.68 0.81 0.99 1.10 0.55 0.60 0.56 0.34 0.16 0.09 0.09 0.09 0.11 0.10 0.10 0.11 0.16 0.22 0.25 0.26 0.21 0.16 0.14 0.16 0.18
0.29 0.30 0.30 0.28 0.21 0.20 0.26 0.38 0.55 0.63 0.95 1.04 0.88 1.03 1.10 0.98 0.97 0.89 0.78 0.61 0.48 0.24 0.25 0.31 0.31 0.47 0.66 0.99 1.10 0.89 0.97 0.82 0.99 1.17 0.62 0.48 0.26 0.20 0.31 0.36 0.36 0.31 0.30 0.31 0.34 0.32 0.26 0.24 0.23 0.24 0.30 0.41 0.43 0.50
0.14 0.16 0.19 0.24 0.35 0.50 0.52 0.54 0.91 1.16 0.99 0.74 0.62 0.78 0.80 0.83 0.66 0.64 0.65 0.65 0.45 0.33 0.30 0.30 0.46 0.66 0.53 0.84 1.22 1.22 1.31 0.97 0.94 0.72 0.47 0.46 0.52 0.67 0.60 0.47 0.41 0.48 0.49 0.50 0.57 0.57 0.57 0.59 0.71 0.80 0.85 0.91 0.76 0.82
0.12 0.13 0.25 0.53 0.59 0.44 0.39 0.58 0.83 0.72 0.49 0.50 0.38 0.49 0.61 0.74 0.58 0.64 0.63 0.47 0.47 0.53 0.61 0.71 0.94 0.76 0.65 0.93 0.94 0.89 0.82 0.66 0.56 0.59 0.69 0.85 0.84 0.80 0.65 0.59 0.59 0.63 0.65 0.66 0.71 0.69 0.77 0.78 0.64 0.74 0.81 0.73 0.58 0.59
0.09 0.16 0.31 0.36 0.26 0.29 0.37 0.59 0.67 0.30 0.32 0.36 0.50 0.65 0.59 0.63 0.66 0.67 0.60 0.52 0.58 0.75 0.80 0.79 0.84 0.78 0.89 0.70 0.49 0.52 0.49 0.60 0.79 0.70 0.84 0.90 0.82 0.85 0.82 0.78 0.78 0.82 0.77 0.77 0.80 0.73 0.66 0.58 0.50 0.52 0.50 0.47 0.47 0.37
0.12 0.16 0.22 0.18 0.21 0.26 0.32 0.38 0.33 0.32 0.37 0.42 0.81 0.95 0.83 0.72 0.81 0.84 0.78 0.68 0.61 0.52 0.51 0.47 0.51 0.56 0.51 0.43 0.50 0.52 0.71 0.78 0.81 0.83 0.87 0.90 0.92 0.97 0.98 0.88 0.81 0.68 0.62 0.65 0.64 0.61 0.59 0.59 0.41 0.26 0.29 0.39 0.27 0.23
0.22 0.18 0.13 0.13 0.16 0.14 0.13 0.10 0.11 0.13 0.33 0.63 0.71 0.94 0.67 0.76 0.74 0.67 0.69 0.60 0.45 0.41 0.41 0.49 0.41 0.44 0.56 0.57 0.68 0.78 0.88 0.93 0.98 0.95 0.92 0.95 0.92 0.85 0.77 0.65 0.63 0.53 0.49 0.51 0.45 0.42 0.39 0.32 0.23 0.27 0.22 0.20 0.12 0.11
0.50 0.25 0.25 0.34 0.27 0.25 0.11 0.09 0.01 0.17 0.53 0.58 0.59 0.47 0.38 0.49 0.51 0.49 0.38 0.27 0.18 0.15 0.17 0.23 0.33 0.55 0.74 0.81 0.86 0.88 0.88 0.80 0.80 0.78 0.71 0.74 0.75 0.71 0.65 0.54 0.50 0.49 0.41 0.38 0.28 0.24 0.22 0.17 0.17 0.15 0.13 0.08 0.10 0.14
0.53 0.41 0.38 0.35 0.20 0.21 0.06 0.05 0.00 0.09 0.28 0.34 0.28 0.12 0.13 0.21 0.16 0.10 0.09 0.06 0.07 0.06 0.11 0.26 0.57 0.69 0.64 0.70 0.66 0.67 0.67 0.62 0.48 0.35 0.42 0.50 0.56 0.44 0.47 0.42 0.40 0.34 0.24 0.21 0.17 0.16 0.13 0.13 0.15 0.15 0.14 0.13 0.12 0.13
0.32 0.25 0.18 0.12 0.09 0.06 0.05 0.04 0.05 0.05 0.10 0.13 0.08 0.02 0.04 0.02 0.02 0.02 0.01 0.00 0.02 0.09 0.36 0.56 0.55 0.60 0.45 0.43 0.38 0.34 0.39 0.36 0.37 0.29 0.33 0.40 0.45 0.30 0.31 0.34 0.30 0.25 0.22 0.24 0.21 0.23 0.18 0.19 0.18 0.14 0.13 0.10 0.09 0.09
0.09 0.04 0.01 0.02 0.06 0.06 0.03 0.00 0.03 0.03 0.02 0.04 0.05 0.03 0.02 0.03 0.02 0.02 0.02 0.05 0.26 0.47 0.51 0.40 0.34 0.28 0.20 0.23 0.22 0.17 0.22 0.19 0.24 0.34 0.43 0.36 0.36 0.34 0.37 0.41 0.30 0.28 0.27 0.27 0.24 0.20 0.17 0.14 0.10 0.07 0.05 0.05 0.04 0.03
0.00 0.01 0.02 0.02 0.06 0.05 0.06 0.02 0.04 0.02 0.01 0.02 0.03 0.02 0.02 0.02 0.03 0.02 0.05 0.16 0.44 0.53 0.40 0.21 0.17 0.15 0.17 0.28 0.19 0.16 0.14 0.10 0.12 0.18 0.23 0.26 0.28 0.30 0.29 0.29 0.27 0.24 0.20 0.18 0.14 0.11 0.08 0.05 0.01 0.01 0.01 0.03 0.03 0.02
0.01 0.02 0.10 0.12 0.06 0.07 0.05 0.05 0.04 0.04 0.02 0.01 0.02 0.05 0.05 0.03 0.01 0.03 0.08 0.20 0.40 0.29 0.19 0.23 0.18 0.14 0.14 0.15 0.17 0.21 0.26 0.20 0.21 0.23 0.24 0.18 0.17 0.19 0.14 0.12 0.08 0.07 0.06 0.04 0.02 0.01 0.01 0.01 0.02 0.04 0.03 0.02 0.01 0.02
0.07 0.04 0.12 0.14 0.11 0.08 0.04 0.03 0.05 0.04 0.03 0.02 0.03 0.06 0.04 0.02 0.04 0.05 0.08 0.26 0.25 0.23 0.24 0.24 0.18 0.17 0.17 0.20 0.22 0.21 0.17 0.12 0.10 0.10 0.12 0.08 0.08 0.05 0.02 0.00 0.01 0.01 0.00 0.01 0.02 0.02 0.02 0.02 0.02 0.01 0.01 0.03 0.05 0.06
0.22 0.13 0.08 0.08 0.06 0.07 0.04 0.03 0.03 0.03 0.03 0.08 0.11 0.07 0.05 0.07 0.07 0.14 0.21 0.31 0.25 0.26 0.29 0.30 0.26 0.19 0.17 0.15 0.14 0.12 0.08 0.06 0.03 0.02 0.02 0.01 0.01 0.01 0.01 0.01 0.01 0.02 0.01 0.03 0.05 0.04 0.02 0.01 0.01 0.02 0.04 0.04 0.05 0.08
0.16 0.12 0.06 0.07 0.09 0.13 0.20 0.17 0.16 0.16 0.15 0.16 0.13 0.09 0.15 0.19 0.16 0.27 0.34 0.35 0.31 0.33 0.26 0.20 0.13 0.10 0.12 0.11 0.08 0.07 0.03 0.01 0.01 0.01 0.01 0.02 0.02 0.01 0.01 0.03 0.04 0.04 0.02 0.02 0.03 0.04 0.05 0.06 0.04 0.04 0.05 0.05 0.07 0.10
0.10 0.08 0.09 0.11 0.18 0.22 0.21 0.19 0.23 0.27 0.28 0.22 0.17 0.15 0.17 0.15 0.23 0.34 0.36 0.38 0.24 0.17 0.10 0.07 0.05 0.03 0.04 0.05 0.06 0.05 0.03 0.01 0.01 0.01 0.02 0.05 0.02 0.00 0.01 0.02 0.02 0.02 0.01 0.02 0.02 0.03 0.05 0.08 0.08 0.08 0.07 0.09 0.09 0.11
0.09 0.11 0.11 0.11 0.07 0.07 0.13 0.16 0.18 0.19 0.18 0.14 0.10 0.12 0.14 0.19 0.31 0.31 0.33 0.27 0.19 0.12 0.09 0.07 0.10 0.06 0.04 0.02 0.01 0.01 0.00 0.00 0.00 0.00 0.00 0.02 0.03 0.03 0.01 0.01 0.02 0.01 0.02 0.02 0.01 0.01 0.05 0.10 0.11 0.13 0.10 0.11 0.11 0.12
0.02 0.02 0.02 0.01 0.04 0.09 0.15 0.11 0.13 0.12 0.06 0.05 0.05 0.07 0.10 0.26 0.41 0.30 0.21 0.16 0.12 0.12 0.11 0.09 0.08 0.04 0.04 0.03 0.02 0.02 0.04 0.01 0.00 0.01 0.02 0.02 0.03 0.03 0.03 0.03 0.02 0.02 0.03 0.02 0.02 0.01 0.02 0.02 0.04 0.09 0.05 0.07 0.10 0.10
0.01 0.01 0.01 0.02 0.08 0.11 0.10 0.05 0.07 0.07 0.07 0.05 0.04 0.05 0.11 0.20 0.22 0.18 0.14 0.15 0.09 0.07 0.05 0.03 0.02 0.01 0.01 0.01 0.02 0.01 0.02 0.02 0.02 0.01 0.01 0.02 0.03 0.03 0.03 0.02 0.03 0.04 0.03 0.03 0.02 0.03 0.04 0.02 0.05 0.06 0.04 0.04 0.06 0.07
0.01 0.02 0.01 0.06 0.15 0.10 0.10 0.13 0.10 0.12 0.09 0.07 0.08 0.06 0.09 0.08 0.08 0.10 0.10 0.08 0.05 0.04 0.03 0.03 0.03 0.04 0.02 0.02 0.01 0.01 0.02 0.01 0.01 0.01 0.02 0.03 0.02 0.02 0.02 0.02 0.02 0.03 0.03 0.03 0.03 0.05 0.04 0.04 0.05 0.05 0.06 0.06 0.06 0.06
0.01 0.00 0.01 0.01 0.06 0.08 0.07 0.07 0.05 0.05 0.06 0.07 0.10 0.10 0.10 0.08 0.08 0.12 0.11 0.06 0.07 0.04 0.01 0.02 0.02 0.03 0.03 0.01 0.00 0.00 0.00 0.00 0.00 0.01 0.02 0.03 0.02 0.01 0.01 0.01 0.02 0.02 0.01 0.02 0.03 0.05 0.04 0.04 0.05 0.05 0.04 0.04 0.04 0.04

GFSWCAN_prec_precacc_072.txt.gz
Total_Precipitation_Accumulation
0.63 0.63 0.56 0.55 0.48 0.51 0.67 0.74 0.61 0.61 0.61 0.53 0.63 0.66 0.60 0.67 0.92 1.54 2.60 1.32 1.95 2.09 0.56 0.25 0.26 0.25 0.13 0.16 0.30 0.28 0.40 0.29 0.42 0.41 0.19 0.12 0.11 0.08 0.05 0.15 0.18 0.20 0.20 0.23 0.28 0.31 0.12 0.02 0.05 0.07 0.04 0.01 0.00 0.00
0.85 0.68 0.61 0.59 0.48 0.55 0.66 0.67 0.55 0.58 0.56 0.50 0.48 0.53 0.58 0.65 1.00 1.38 2.29 1.42 1.34 2.06 1.23 0.36 0.24 0.20 0.14 0.13 0.23 0.38 0.22 0.20 0.16 0.34 0.22 0.22 0.11 0.08 0.04 0.08 0.06 0.12 0.15 0.19 0.17 0.17 0.11 0.06 0.08 0.10 0.09 0.05 0.01 0.01
1.15 0.79 0.69 0.59 0.53 0.62 0.64 0.56 0.45 0.47 0.50 0.49 0.49 0.48 0.55 0.75 1.01 1.46 1.68 1.37 2.07 2.99 1.48 0.69 0.32 0.14 0.17 0.07 0.15 0.35 0.12 0.09 0.18 0.20 0.26 0.27 0.18 0.08 0.06 0.06 0.08 0.03 0.01 0.08 0.10 0.10 0.09 0.07 0.04 0.02 0.01 0.01 0.02 0.02
1.09 0.85 0.56 0.50 0.50 0.58 0.53 0.42 0.40 0.46 0.49 0.51 0.45 0.56 0.62 0.95 1.02 1.44 1.39 1.69 2.23 2.14 1.59 0.73 0.48 0.28 0.18 0.22 0.16 0.19 0.16 0.13 0.21 0.31 0.37 0.35 0.24 0.09 0.11 0.08 0.05 0.03 0.03 0.04 0.05 0.10 0.18 0.07 0.02 0.02 0.01 0.00 0.00 0.01
0.79 0.62 0.49 0.44 0.45 0.51 0.50 0.51 0.50 0.48 0.57 0.55 0.52 0.64 0.92 1.01 1.27 1.66 1.25 1.61 1.91 1.96 1.60 0.84 0.41 0.33 0.22 0.18 0.17 0.19 0.23 0.29 0.38 0.50 0.48 0.26 0.16 0.12 0.08 0.08 0.07 0.06 0.09 0.10 0.09 0.07 0.14 0.05 0.01 0.03 0.01 0.00 0.00 0.00
0.65 0.57 0.47 0.45 0.41 0.44 0.39 0.47 0.56 0.62 0.51 0.59 0.68 0.83 0.90 0.96 1.92 2.65 3.17 2.36 1.53 1.60 1.81 1.36 0.49 0.22 0.28 0.28 0.33 0.23 0.31 0.44 0.52 0.47 0.36 0.36 0.20 0.30 0.20 0.13 0.17 0.05 0.08 0.10 0.05 0.03 0.04 0.03 0.02 0.02 0.01 0.01 0.02 0.01
0.66 0.60 0.47 0.40 0.32 0.30 0.34 0.40 0.43 0.49 0.69 0.76 0.78 0.75 0.93 1.52 1.95 1.61 1.58 1.37 0.93 1.26 1.73 1.34 0.90 0.41 0.36 0.51 0.92 0.70 0.60 0.71 0.77 0.64 0.38 0.25 0.26 0.39 0.28 0.21 0.16 0.03 0.02 0.03 0.01 0.02 0.05 0.06 0.05 0.03 0.04 0.05 0.04 0.03
0.59 0.46 0.38 0.34 0.31 0.30 0.34 0.42 0.47 0.57 0.69 0.67 0.74 0.95 1.29 1.48 1.40 1.33 0.74 0.69 0.66 0.99 1.22 1.31 1.21 0.98 0.59 0.67 0.96 1.00 0.85 0.98 1.09 0.86 0.48 0.23 0.33 0.55 0.65 0.20 0.04 0.02 0.01 0.01 0.00 0.00 0.00 0.02 0.04 0.04 0.05 0.07 0.12 0.15
0.42 0.36 0.33 0.31 0.37 0.42 0.47 0.46 0.50 0.63 0.73 1.00 1.44 1.96 2.46 2.42 2.33 1.35 0.84 0.90 0.91 1.00 0.99 0.68 1.07 1.12 0.94 0.68 0.85 0.92 1.00 1.09 0.65 0.61 0.59 0.58 0.41 0.68 0.52 0.17 0.11 0.05 0.01 0.00 0.00 0.00 0.00 0.00 0.01 0.02 0.03 0.04 0.07 0.16
0.36 0.36 0.39 0.38 0.41 0.39 0.41 0.49 0.65 0.84 1.12 1.56 1.96 2.45 3.06 2.08 1.48 1.34 2.12 2.14 1.54 0.89 0.59 0.48 0.68 1.07 1.11 0.88 0.86 1.03 0.98 0.80 0.60 0.43 0.44 0.67 0.66 0.30 0.08 0.10 0.09 0.09 0.11 0.06 0.03 0.01 0.01 0.03 0.06 0.10 0.14 0.14 0.15 0.16
0.42 0.41 0.43 0.42 0.45 0.56 0.63 0.68 0.77 0.83 0.95 1.22 1.78 2.19 2.02 1.57 1.54 1.69 1.86 1.55 1.04 0.59 0.29 0.22 0.42 0.88 1.10 0.91 0.94 0.74 1.23 1.08 0.58 0.44 0.47 0.56 0.48 0.26 0.10 0.05 0.05 0.07 0.05 0.05 0.04 0.06 0.07 0.11 0.17 0.21 0.21 0.19 0.16 0.14
0.34 0.36 0.34 0.37 0.43 0.55 0.56 0.60 0.56 0.53 0.76 0.94 1.30 1.48 1.82 1.77 1.35 1.08 0.98 0.85 0.49 0.38 0.33 0.23 0.25 0.44 0.99 1.04 1.05 0.71 0.86 1.02 1.16 0.58 0.64 0.64 0.36 0.16 0.09 0.09 0.09 0.11 0.10 0.10 0.12 0.16 0.23 0.26 0.27 0.22 0.16 0.15 0.17 0.21
0.32 0.33 0.37 0.37 0.34 0.36 0.44 0.51 0.60 0.67 0.98 1.06 0.90 1.10 1.19 1.05 1.03 0.94 0.80 0.63 0.51 0.25 0.25 0.32 0.32 0.48 0.68 1.01 1.14 0.91 1.04 0.88 1.00 1.19 0.65 0.51 0.27 0.21 0.31 0.36 0.37 0.31 0.30 0.32 0.35 0.33 0.27 0.25 0.24 0.25 0.32 0.44 0.46 0.53
0.15 0.16 0.20 0.27 0.39 0.52 0.54 0.56 0.95 1.20 1.00 0.76 0.63 0.79 0.82 0.83 0.68 0.66 0.69 0.67 0.46 0.34 0.31 0.31 0.47 0.70 0.59 0.88 1.26 1.24 1.32 0.99 0.97 0.75 0.50 0.49 0.53 0.68 0.61 0.48 0.42 0.49 0.49 0.51 0.59 0.58 0.59 0.61 0.73 0.83 0.88 0.94 0.79 0.85
0.12 0.13 0.25 0.54 0.59 0.44 0.39 0.59 0.83 0.72 0.49 0.50 0.38 0.50 0.62 0.76 0.60 0.66 0.64 0.50 0.50 0.58 0.65 0.74 0.98 0.80 0.67 0.95 0.94 0.91 0.83 0.67 0.58 0.63 0.72 0.88 0.86 0.81 0.67 0.61 0.60 0.64 0.67 0.68 0.73 0.71 0.80 0.81 0.66 0.77 0.85 0.77 0.62 0.63
0.09 0.16 0.31 0.36 0.26 0.29 0.37 0.59 0.68 0.30 0.32 0.36 0.51 0.67 0.61 0.68 0.71 0.71 0.65 0.60 0.67 0.83 0.84 0.82 0.90 0.84 0.91 0.71 0.50 0.53 0.51 0.62 0.82 0.73 0.87 0.91 0.83 0.86 0.84 0.79 0.80 0.84 0.79 0.79 0.81 0.74 0.68 0.61 0.52 0.55 0.53 0.50 0.51 0.41
0.12 0.16 0.22 0.18 0.21 0.26 0.32 0.38 0.34 0.33 0.37 0.42 0.83 0.97 0.86 0.76 0.86 0.91 0.87 0.78 0.68 0.57 0.53 0.49 0.54 0.59 0.52 0.43 0.51 0.53 0.74 0.82 0.84 0.86 0.89 0.92 0.94 0.99 0.99 0.89 0.82 0.70 0.64 0.66 0.66 0.62 0.61 0.61 0.43 0.28 0.32 0.41 0.28 0.23
0.23 0.18 0.13 0.13 0.17 0.14 0.13 0.10 0.11 0.13 0.34 0.65 0.74 0.99 0.69 0.79 0.79 0.74 0.75 0.62 0.47 0.41 0.41 0.49 0.41 0.44 0.57 0.58 0.70 0.81 0.91 0.96 1.01 0.98 0.95 0.98 0.93 0.86 0.78 0.66 0.64 0.54 0.51 0.53 0.46 0.43 0.40 0.34 0.24 0.27 0.23 0.20 0.12 0.11
0.50 0.25 0.25 0.34 0.27 0.25 0.11 0.09 0.01 0.17 0.54 0.60 0.61 0.49 0.40 0.53 0.54 0.53 0.40 0.27 0.18 0.15 0.17 0.23 0.33 0.56 0.76 0.83 0.88 0.91 0.91 0.82 0.82 0.80 0.72 0.75 0.75 0.71 0.66 0.55 0.51 0.50 0.42 0.40 0.29 0.24 0.22 0.17 0.17 0.15 0.13 0.08 0.10 0.14
0.53 0.41 0.38 0.36 0.20 0.21 0.06 0.05 0.00 0.09 0.29 0.35 0.30 0.14 0.14 0.24 0.18 0.12 0.09 0.06 0.07 0.06 0.11 0.27 0.60 0.75 0.68 0.74 0.68 0.69 0.68 0.62 0.49 0.36 0.43 0.51 0.57 0.45 0.49 0.43 0.41 0.35 0.25 0.21 0.17 0.16 0.13 0.13 0.15 0.15 0.14 0.13 0.12 0.13
0.32 0.25 0.18 0.12 0.09 0.06 0.05 0.04 0.05 0.05 0.10 0.14 0.09 0.03 0.05 0.03 0.03 0.03 0.02 0.00 0.03 0.11 0.38 0.59 0.58 0.63 0.47 0.45 0.39 0.35 0.41 0.38 0.39 0.30 0.34 0.41 0.46 0.31 0.32 0.34 0.30 0.25 0.22 0.24 0.21 0.23 0.18 0.19 0.18 0.14 0.13 0.10 0.09 0.09
0.09 0.04 0.01 0.02 0.06 0.06 0.03 0.00 0.03 0.03 0.02 0.04 0.05 0.03 0.03 0.04 0.03 0.02 0.02 0.05 0.29 0.51 0.54 0.42 0.36 0.29 0.21 0.24 0.23 0.17 0.23 0.19 0.24 0.35 0.43 0.36 0.36 0.34 0.37 0.41 0.30 0.28 0.27 0.27 0.24 0.21 0.18 0.14 0.10 0.07 0.06 0.06 0.04 0.04
0.00 0.01 0.02 0.02 0.06 0.06 0.07 0.04 0.05 0.03 0.01 0.02 0.03 0.03 0.03 0.03 0.03 0.02 0.05 0.17 0.47 0.56 0.42 0.22 0.17 0.15 0.18 0.28 0.19 0.16 0.14 0.10 0.12 0.18 0.23 0.26 0.28 0.30 0.29 0.29 0.27 0.24 0.20 0.18 0.14 0.11 0.09 0.05 0.01 0.01 0.02 0.03 0.03 0.02
0.01 0.02 0.10 0.12 0.06 0.08 0.06 0.05 0.04 0.04 0.02 0.01 0.02 0.05 0.06 0.03 0.01 0.03 0.08 0.21 0.42 0.31 0.19 0.24 0.18 0.14 0.14 0.15 0.17 0.21 0.26 0.20 0.21 0.23 0.24 0.18 0.17 0.19 0.14 0.12 0.08 0.07 0.06 0.04 0.02 0.01 0.01 0.02 0.02 0.04 0.03 0.02 0.02 0.03
0.07 0.04 0.12 0.14 0.11 0.08 0.04 0.03 0.05 0.04 0.03 0.02 0.03 0.06 0.04 0.02 0.04 0.05 0.09 0.28 0.26 0.25 0.26 0.25 0.18 0.17 0.18 0.21 0.22 0.21 0.17 0.12 0.10 0.10 0.12 0.08 0.08 0.05 0.02 0.00 0.01 0.01 0.00 0.02 0.02 0.02 0.02 0.02 0.02 0.01 0.01 0.03 0.05 0.06
0.22 0.13 0.08 0.09 0.06 0.07 0.04 0.03 0.03 0.03 0.03 0.08 0.11 0.07 0.05 0.07 0.07 0.14 0.22 0.32 0.27 0.28 0.31 0.31 0.26 0.19 0.17 0.15 0.14 0.12 0.08 0.06 0.03 0.02 0.02 0.01 0.01 0.01 0.01 0.01 0.01 0.03 0.01 0.03 0.05 0.05 0.02 0.02 0.02 0.03 0.04 0.04 0.05 0.08
0.16 0.13 0.06 0.07 0.09 0.13 0.20 0.17 0.16 0.16 0.15 0.16 0.13 0.09 0.15 0.19 0.16 0.28 0.38 0.37 0.32 0.34 0.27 0.21 0.13 0.10 0.12 0.11 0.08 0.07 0.03 0.01 0.01 0.01 0.01 0.02 0.02 0.01 0.01 0.03 0.04 0.04 0.02 0.02 0.03 0.04 0.06 0.06 0.05 0.04 0.05 0.06 0.08 0.10
0.10 0.08 0.09 0.11 0.18 0.22 0.21 0.19 0.23 0.27 0.28 0.22 0.17 0.15 0.17 0.15 0.25 0.37 0.38 0.40 0.25 0.17 0.10 0.07 0.05 0.03 0.04 0.05 0.06 0.05 0.03 0.01 0.01 0.01 0.02 0.05 0.02 0.00 0.01 0.02 0.02 0.02 0.01 0.02 0.02 0.03 0.05 0.08 0.08 0.08 0.08 0.09 0.09 0.12
0.09 0.11 0.11 0.11 0.07 0.07 0.13 0.16 0.19 0.20 0.19 0.14 0.10 0.12 0.14 0.20 0.33 0.33 0.35 0.28 0.19 0.12 0.09 0.08 0.10 0.06 0.04 0.02 0.01 0.01 0.00 0.00 0.00 0.00 0.00 0.02 0.04 0.04 0.01 0.02 0.02 0.01 0.02 0.02 0.01 0.02 0.06 0.11 0.11 0.13 0.11 0.11 0.12 0.12
0.02 0.02 0.02 0.01 0.04 0.10 0.17 0.12 0.15 0.13 0.06 0.05 0.05 0.08 0.11 0.30 0.47 0.33 0.23 0.18 0.13 0.13 0.12 0.10 0.09 0.05 0.04 0.03 0.02 0.02 0.04 0.01 0.00 0.01 0.02 0.02 0.03 0.03 0.03 0.04 0.03 0.02 0.03 0.03 0.02 0.01 0.02 0.03 0.05 0.09 0.06 0.07 0.10 0.10
0.01 0.01 0.01 0.02 0.09 0.14 0.13 0.06 0.08 0.08 0.08 0.06 0.05 0.06 0.13 0.23 0.24 0.20 0.15 0.16 0.10 0.07 0.05 0.03 0.02 0.02 0.01 0.01 0.02 0.01 0.03 0.02 0.02 0.01 0.01 0.02 0.03 0.03 0.03 0.03 0.03 0.04 0.04 0.03 0.03 0.04 0.04 0.02 0.06 0.07 0.04 0.04 0.06 0.07
0.01 0.02 0.01 0.06 0.16 0.11 0.13 0.15 0.11 0.14 0.10 0.07 0.09 0.07 0.10 0.08 0.09 0.11 0.11 0.10 0.07 0.05 0.04 0.04 0.04 0.04 0.02 0.02 0.02 0.02 0.02 0.01 0.01 0.01 0.02 0.03 0.03 0.02 0.02 0.02 0.02 0.03 0.04 0.03 0.03 0.05 0.04 0.04 0.05 0.05 0.06 0.06 0.06 0.06
0.01 0.00 0.01 0.01 0.06 0.09 0.08 0.08 0.05 0.06 0.06 0.07 0.11 0.11 0.11 0.08 0.09 0.13 0.11 0.07 0.10 0.06 0.03 0.02 0.03 0.03 0.03 0.01 0.00 0.00 0.00 0.00 0.00 0.01 0.02 0.03 0.02 0.01 0.01 0.02 0.02 0.02 0.02 0.02 0.03 0.05 0.04 0.04 0.05 0.05 0.04 0.04 0.04 0.04

GFSWCAN_prec_precacc_075.txt.gz
Total_Precipitation_Accumulation
0.63 0.64 0.56 0.55 0.49 0.52 0.67 0.75 0.62 0.62 0.62 0.54 0.66 0.68 0.61 0.68 0.93 1.55 2.60 1.34 1.99 2.12 0.56 0.25 0.26 0.26 0.14 0.21 0.37 0.34 0.59 0.35 0.42 0.41 0.19 0.13 0.14 0.12 0.15 0.24 0.19 0.20 0.21 0.23 0.29 0.31 0.13 0.05 0.14 0.19 0.10 0.08 0.04 0.01
0.85 0.68 0.62 0.59 0.49 0.56 0.66 0.68 0.56 0.59 0.57 0.51 0.50 0.54 0.61 0.68 1.02 1.41 2.29 1.42 1.38 2.09 1.23 0.36 0.24 0.20 0.14 0.15 0.44 0.54 0.45 0.32 0.17 0.36 0.26 0.26 0.20 0.14 0.07 0.14 0.11 0.13 0.15 0.19 0.17 0.18 0.16 0.08 0.14 0.13 0.09 0.05 0.01 0.01
1.16 0.80 0.70 0.60 0.56 0.65 0.68 0.57 0.46 0.48 0.51 0.50 0.49 0.49 0.57 0.78 1.05 1.50 1.68 1.38 2.09 3.01 1.49 0.69 0.32 0.14 0.17 0.08 0.20 0.46 0.33 0.17 0.22 0.27 0.37 0.30 0.25 0.14 0.10 0.10 0.16 0.07 0.02 0.11 0.14 0.21 0.12 0.07 0.04 0.02 0.01 0.01 0.02 0.02
1.09 0.85 0.57 0.52 0.52 0.59 0.54 0.42 0.40 0.47 0.49 0.52 0.46 0.57 0.63 0.97 1.06 1.52 1.42 1.70 2.25 2.14 1.59 0.73 0.48 0.28 0.18 0.22 0.18 0.22 0.23 0.25 0.27 0.39 0.52 0.46 0.35 0.14 0.20 0.14 0.28 0.32 0.07 0.14 0.28 0.78 0.34 0.18 0.03 0.02 0.01 0.00 0.00 0.01
0.79 0.63 0.51 0.45 0.45 0.51 0.50 0.51 0.50 0.49 0.58 0.55 0.52 0.65 0.94 1.05 1.32 1.77 1.32 1.62 1.91 1.96 1.63 0.88 0.42 0.33 0.22 0.18 0.17 0.20 0.25 0.33 0.40 0.52 0.51 0.29 0.20 0.15 0.27 0.16 0.31 0.22 0.19 0.29 0.31 0.45 0.42 0.21 0.03 0.03 0.01 0.00 0.00 0.00
0.66 0.58 0.48 0.46 0.41 0.44 0.39 0.47 0.56 0.62 0.52 0.60 0.69 0.84 0.92 1.06 2.07 2.94 3.55 2.51 1.55 1.61 1.83 1.40 0.51 0.23 0.28 0.28 0.33 0.23 0.31 0.44 0.54 0.48 0.37 0.37 0.24 0.39 0.37 0.29 0.25 0.07 0.08 0.10 0.09 0.09 0.07 0.04 0.02 0.02 0.01 0.01 0.02 0.01
0.67 0.60 0.47 0.40 0.33 0.30 0.34 0.41 0.44 0.50 0.70 0.77 0.80 0.76 0.97 1.66 2.13 1.72 1.66 1.41 0.94 1.31 1.83 1.41 0.92 0.43 0.37 0.51 0.92 0.70 0.61 0.72 0.80 0.66 0.39 0.25 0.31 0.47 0.38 0.37 0.30 0.14 0.04 0.03 0.01 0.02 0.05 0.06 0.05 0.03 0.04 0.05 0.04 0.03
0.59 0.46 0.39 0.34 0.31 0.30 0.35 0.43 0.48 0.58 0.70 0.69 0.77 0.99 1.40 1.63 1.50 1.41 0.76 0.69 0.66 1.06 1.27 1.36 1.25 1.09 0.62 0.68 0.98 1.02 0.88 1.01 1.13 0.87 0.48 0.24 0.35 0.61 0.70 0.23 0.06 0.03 0.02 0.01 0.00 0.00 0.00 0.02 0.04 0.04 0.05 0.07 0.12 0.15
0.44 0.36 0.33 0.31 0.37 0.43 0.48 0.47 0.51 0.64 0.75 1.04 1.53 2.13 2.70 2.52 2.41 1.43 0.85 0.91 0.92 1.03 1.04 0.71 1.08 1.17 0.97 0.72 0.94 0.97 1.03 1.13 0.68 0.62 0.59 0.62 0.50 0.77 0.56 0.18 0.11 0.05 0.01 0.00 0.00 0.00 0.00 0.00 0.01 0.02 0.03 0.04 0.07 0.16
0.37 0.36 0.39 0.39 0.42 0.40 0.42 0.51 0.68 0.89 1.26 1.72 2.10 2.58 3.15 2.13 1.51 1.43 2.25 2.32 1.69 0.94 0.62 0.50 0.72 1.09 1.14 0.92 0.87 1.05 0.99 0.82 0.61 0.44 0.44 0.67 0.68 0.30 0.08 0.10 0.09 0.09 0.11 0.06 0.03 0.02 0.02 0.03 0.06 0.10 0.14 0.14 0.15 0.16
0.45 0.41 0.43 0.43 0.47 0.57 0.66 0.73 0.87 1.02 1.17 1.29 1.85 2.22 2.06 1.64 1.61 1.80 1.97 1.64 1.10 0.62 0.29 0.23 0.55 0.98 1.14 0.95 0.94 0.76 1.24 1.09 0.61 0.45 0.48 0.59 0.49 0.27 0.10 0.05 0.05 0.07 0.05 0.05 0.05 0.06 0.07 0.11 0.18 0.21 0.21 0.19 0.16 0.14
0.37 0.38 0.37 0.41 0.51 0.65 0.63 0.66 0.62 0.67 0.87 0.95 1.32 1.53 1.91 1.84 1.39 1.12 1.02 0.88 0.50 0.39 0.34 0.24 0.36 0.50 1.06 1.17 1.07 0.72 0.87 1.06 1.23 0.62 0.68 0.67 0.39 0.17 0.09 0.09 0.09 0.11 0.10 0.10 0.12 0.17 0.23 0.26 0.27 0.22 0.16 0.15 0.18 0.21
0.34 0.38 0.47 0.55 0.49 0.49 0.60 0.60 0.67 0.70 0.98 1.07 0.91 1.13 1.22 1.06 1.04 0.97 0.82 0.64 0.53 0.25 0.25 0.32 0.37 0.50 0.70 1.09 1.16 0.92 1.05 0.89 1.00 1.20 0.67 0.53 0.28 0.21 0.31 0.36 0.37 0.31 0.30 0.32 0.35 0.33 0.27 0.25 0.24 0.25 0.32 0.44 0.46 0.54
0.16 0.21 0.29 0.39 0.54 0.71 0.61 0.59 0.98 1.21 1.01 0.77 0.63 0.79 0.82 0.84 0.69 0.67 0.70 0.67 0.46 0.34 0.31 0.31 0.47 0.70 0.59 0.88 1.26 1.24 1.32 0.99 0.98 0.77 0.51 0.51 0.54 0.68 0.61 0.48 0.42 0.49 0.49 0.52 0.59 0.58 0.59 0.61 0.73 0.83 0.88 0.94 0.79 0.85
0.13 0.15 0.27 0.57 0.62 0.45 0.41 0.61 0.84 0.72 0.49 0.50 0.38 0.50 0.62 0.76 0.60 0.67 0.65 0.50 0.50 0.58 0.66 0.74 0.98 0.80 0.67 0.95 0.94 0.91 0.83 0.68 0.59 0.64 0.74 0.90 0.86 0.81 0.67 0.61 0.60 0.65 0.67 0.68 0.74 0.71 0.80 0.81 0.66 0.77 0.85 0.78 0.62 0.63
0.10 0.16 0.31 0.36 0.28 0.30 0.38 0.60 0.68 0.30 0.32 0.36 0.51 0.68 0.63 0.70 0.73 0.73 0.66 0.61 0.67 0.84 0.84 0.82 0.90 0.84 0.91 0.71 0.50 0.54 0.53 0.63 0.83 0.74 0.87 0.91 0.83 0.86 0.84 0.79 0.80 0.84 0.79 0.79 0.81 0.74 0.68 0.61 0.52 0.56 0.53 0.50 0.51 0.41
0.12 0.16 0.22 0.18 0.22 0.26 0.32 0.39 0.34 0.33 0.37 0.43 0.83 0.98 0.89 0.77 0.87 0.92 0.89 0.80 0.70 0.60 0.54 0.49 0.54 0.59 0.52 0.43 0.51 0.54 0.76 0.83 0.85 0.87 0.90 0.92 0.94 0.99 0.99 0.89 0.82 0.70 0.64 0.67 0.66 0.63 0.61 0.61 0.44 0.28 0.32 0.41 0.28 0.23
0.23 0.18 0.13 0.16 0.19 0.15 0.13 0.10 0.12 0.13 0.34 0.66 0.75 1.00 0.70 0.81 0.81 0.76 0.78 0.63 0.48 0.42 0.41 0.49 0.41 0.44 0.57 0.59 0.70 0.83 0.93 0.97 1.01 0.98 0.95 0.98 0.94 0.87 0.78 0.67 0.65 0.55 0.51 0.53 0.46 0.44 0.41 0.35 0.24 0.27 0.23 0.20 0.12 0.11
0.50 0.25 0.26 0.39 0.28 0.25 0.11 0.09 0.01 0.17 0.55 0.61 0.63 0.52 0.44 0.57 0.58 0.56 0.41 0.27 0.18 0.15 0.17 0.23 0.33 0.56 0.76 0.84 0.88 0.92 0.91 0.82 0.83 0.81 0.74 0.76 0.76 0.71 0.66 0.56 0.51 0.51 0.43 0.41 0.30 0.24 0.22 0.17 0.17 0.15 0.13 0.08 0.10 0.14
0.53 0.41 0.38 0.38 0.20 0.21 0.06 0.05 0.00 0.09 0.29 0.36 0.31 0.15 0.16 0.26 0.21 0.14 0.09 0.06 0.07 0.06 0.11 0.27 0.62 0.77 0.69 0.75 0.68 0.69 0.69 0.62 0.49 0.36 0.43 0.51 0.57 0.45 0.50 0.44 0.41 0.35 0.25 0.21 0.17 0.16 0.13 0.13 0.15 0.15 0.14 0.13 0.13 0.14
0.32 0.25 0.18 0.12 0.09 0.06 0.05 0.04 0.05 0.05 0.10 0.14 0.10 0.03 0.07 0.04 0.03 0.03 0.02 0.00 0.03 0.11 0.39 0.61 0.60 0.65 0.47 0.45 0.40 0.36 0.43 0.40 0.40 0.30 0.34 0.42 0.46 0.31 0.32 0.34 0.30 0.25 0.22 0.24 0.21 0.23 0.18 0.19 0.18 0.14 0.13 0.10 0.09 0.09
0.09 0.04 0.01 0.02 0.06 0.06 0.03 0.00 0.03 0.03 0.02 0.05 0.06 0.03 0.04 0.05 0.03 0.02 0.02 0.05 0.30 0.53 0.55 0.43 0.37 0.30 0.21 0.24 0.23 0.17 0.23 0.19 0.24 0.35 0.44 0.36 0.37 0.35 0.37 0.41 0.30 0.28 0.27 0.27 0.24 0.21 0.18 0.14 0.10 0.07 0.06 0.06 0.04 0.04
0.00 0.01 0.02 0.02 0.06 0.06 0.07 0.04 0.05 0.03 0.02 0.02 0.03 0.03 0.03 0.03 0.03 0.02 0.06 0.18 0.49 0.58 0.43 0.22 0.17 0.15 0.18 0.28 0.19 0.16 0.14 0.10 0.12 0.18 0.23 0.26 0.28 0.30 0.29 0.29 0.27 0.24 0.20 0.18 0.14 0.11 0.09 0.05 0.01 0.01 0.02 0.03 0.04 0.03
0.01 0.02 0.10 0.12 0.06 0.08 0.06 0.06 0.04 0.04 0.02 0.01 0.02 0.05 0.06 0.03 0.01 0.03 0.09 0.22 0.43 0.31 0.19 0.24 0.18 0.14 0.15 0.15 0.17 0.21 0.26 0.20 0.21 0.23 0.24 0.18 0.17 0.19 0.14 0.12 0.08 0.07 0.06 0.04 0.02 0.01 0.01 0.02 0.02 0.04 0.03 0.02 0.02 0.03
0.07 0.04 0.12 0.14 0.11 0.08 0.04 0.03 0.05 0.04 0.03 0.02 0.03 0.06 0.04 0.02 0.04 0.05 0.09 0.29 0.27 0.26 0.26 0.26 0.20 0.18 0.18 0.21 0.22 0.21 0.17 0.12 0.10 0.10 0.12 0.08 0.08 0.05 0.02 0.00 0.01 0.01 0.00 0.02 0.03 0.02 0.02 0.02 0.02 0.01 0.01 0.03 0.05 0.06
0.22 0.13 0.08 0.09 0.06 0.07 0.04 0.03 0.03 0.03 0.03 0.08 0.11 0.07 0.05 0.07 0.07 0.15 0.23 0.33 0.27 0.28 0.32 0.32 0.27 0.19 0.17 0.15 0.14 0.12 0.08 0.06 0.03 0.02 0.02 0.01 0.01 0.01 0.01 0.01 0.02 0.03 0.01 0.03 0.05 0.05 0.03 0.02 0.02 0.03 0.04 0.04 0.05 0.08
0.16 0.13 0.06 0.07 0.09 0.13 0.20 0.17 0.16 0.16 0.15 0.16 0.13 0.09 0.15 0.19 0.17 0.30 0.41 0.37 0.33 0.36 0.28 0.21 0.14 0.10 0.12 0.11 0.08 0.07 0.03 0.01 0.01 0.01 0.01 0.02 0.02 0.01 0.01 0.03 0.05 0.04 0.02 0.02 0.03 0.04 0.06 0.06 0.05 0.04 0.05 0.06 0.08 0.11
0.10 0.08 0.09 0.12 0.18 0.22 0.22 0.19 0.23 0.27 0.28 0.22 0.17 0.15 0.17 0.15 0.26 0.39 0.41 0.42 0.25 0.17 0.10 0.07 0.05 0.03 0.04 0.05 0.06 0.05 0.03 0.01 0.01 0.01 0.02 0.05 0.02 0.00 0.01 0.02 0.02 0.02 0.01 0.02 0.02 0.03 0.05 0.08 0.08 0.08 0.08 0.09 0.09 0.12
0.09 0.11 0.11 0.11 0.07 0.07 0.13 0.16 0.19 0.20 0.19 0.15 0.10 0.12 0.15 0.22 0.35 0.34 0.35 0.28 0.19 0.12 0.09 0.08 0.10 0.06 0.04 0.02 0.01 0.01 0.00 0.00 0.00 0.00 0.00 0.03 0.05 0.04 0.01 0.02 0.02 0.01 0.02 0.02 0.02 0.02 0.06 0.11 0.11 0.13 0.11 0.11 0.12 0.12
0.02 0.02 0.02 0.01 0.04 0.10 0.18 0.13 0.16 0.13 0.06 0.05 0.05 0.09 0.13 0.33 0.50 0.34 0.24 0.19 0.14 0.13 0.12 0.10 0.09 0.05 0.04 0.03 0.02 0.02 0.04 0.01 0.00 0.01 0.02 0.02 0.03 0.03 0.03 0.04 0.03 0.02 0.03 0.03 0.02 0.01 0.02 0.03 0.05 0.09 0.06 0.07 0.10 0.10
0.01 0.01 0.01 0.02 0.10 0.15 0.14 0.07 0.09 0.09 0.08 0.06 0.05 0.06 0.13 0.25 0.26 0.23 0.17 0.17 0.10 0.07 0.06 0.04 0.02 0.02 0.01 0.02 0.02 0.02 0.03 0.02 0.02 0.01 0.01 0.02 0.03 0.03 0.03 0.03 0.03 0.04 0.04 0.03 0.03 0.04 0.04 0.02 0.06 0.07 0.04 0.04 0.06 0.07
0.01 0.02 0.01 0.06 0.17 0.13 0.16 0.16 0.12 0.15 0.11 0.08 0.09 0.07 0.10 0.09 0.09 0.12 0.11 0.12 0.08 0.06 0.04 0.05 0.05 0.05 0.02 0.02 0.02 0.02 0.02 0.01 0.01 0.01 0.02 0.03 0.03 0.02 0.02 0.02 0.02 0.03 0.04 0.03 0.03 0.05 0.04 0.04 0.05 0.05 0.06 0.06 0.06 0.06
0.01 0.00 0.01 0.01 0.06 0.09 0.08 0.08 0.06 0.06 0.07 0.08 0.12 0.12 0.12 0.09 0.09 0.14 0.12 0.08 0.12 0.06 0.03 0.03 0.03 0.03 0.03 0.01 0.00 0.00 0.00 0.00 0.00 0.01 0.02 0.03 0.02 0.01 0.01 0.02 0.02 0.02 0.02 0.02 0.03 0.05 0.04 0.04 0.05 0.05 0.04 0.04 0.04 0.04

GFSWCAN_prec_precacc_081.txt.gz
Total_Precipitation_Accumulation
0.65 0.65 0.57 0.56 0.49 0.52 0.68 0.76 0.63 0.63 0.64 0.56 0.67 0.70 0.63 0.70 0.99 1.64 2.60 1.34 1.99 2.14 0.56 0.25 0.26 0.26 0.14 0.22 0.43 0.36 0.62 0.41 0.43 0.41 0.19 0.13 0.14 0.13 0.16 0.30 0.24 0.21 0.23 0.25 0.31 0.33 0.13 0.12 0.25 0.52 0.55 0.47 0.33 0.30
0.86 0.69 0.62 0.60 0.49 0.57 0.67 0.69 0.57 0.60 0.58 0.53 0.51 0.57 0.63 0.70 1.06 1.47 2.30 1.42 1.39 2.11 1.23 0.36 0.24 0.20 0.14 0.15 0.45 0.59 0.51 0.55 0.55 0.45 0.29 0.27 0.20 0.16 0.11 0.23 0.25 0.23 0.16 0.20 0.18 0.23 0.21 0.13 0.24 0.42 0.38 0.31 0.12 0.15
1.16 0.80 0.70 0.61 0.56 0.66 0.68 0.59 0.49 0.51 0.54 0.54 0.53 0.50 0.59 0.80 1.10 1.56 1.69 1.38 2.11 3.02 1.49 0.69 0.32 0.14 0.17 0.08 0.20 0.48 0.39 0.42 0.50 0.42 0.46 0.35 0.27 0.24 0.28 0.33 0.42 0.54 0.13 0.18 0.22 0.49 0.17 0.09 0.14 0.10 0.10 0.08 0.03 0.03
1.09 0.86 0.58 0.52 0.52 0.59 0.55 0.44 0.42 0.48 0.51 0.56 0.49 0.62 0.66 1.00 1.11 1.60 1.42 1.70 2.25 2.14 1.60 0.73 0.48 0.28 0.18 0.22 0.18 0.22 0.25 0.35 0.44 0.56 0.60 0.53 0.44 0.36 0.54 0.42 0.48 0.82 0.29 0.31 0.53 1.26 0.58 0.43 0.37 0.21 0.05 0.03 0.01 0.01
0.80 0.64 0.52 0.46 0.46 0.52 0.51 0.52 0.52 0.52 0.61 0.60 0.57 0.72 1.01 1.09 1.37 1.85 1.35 1.62 1.91 1.96 1.63 0.88 0.42 0.33 0.22 0.18 0.17 0.20 0.25 0.35 0.49 0.62 0.53 0.31 0.24 0.35 0.75 0.46 0.54 0.62 0.61 0.62 0.78 1.00 0.83 0.57 0.29 0.18 0.05 0.01 0.00 0.00
0.67 0.58 0.48 0.46 0.42 0.44 0.40 0.48 0.58 0.65 0.55 0.63 0.73 0.89 1.00 1.11 2.19 3.20 4.00 2.70 1.57 1.61 1.84 1.40 0.51 0.24 0.28 0.28 0.33 0.23 0.32 0.45 0.55 0.49 0.38 0.37 0.30 0.61 0.85 0.54 0.61 0.65 0.73 0.55 0.55 0.56 0.41 0.24 0.10 0.05 0.02 0.01 0.02 0.01
0.67 0.60 0.47 0.41 0.33 0.31 0.35 0.41 0.45 0.53 0.73 0.80 0.84 0.79 1.06 1.77 2.27 1.88 1.74 1.44 0.96 1.35 1.89 1.42 0.93 0.43 0.38 0.51 0.92 0.70 0.61 0.72 0.81 0.67 0.39 0.25 0.38 0.63 0.78 0.66 0.58 0.48 0.42 0.31 0.24 0.16 0.10 0.08 0.06 0.03 0.04 0.05 0.04 0.03
0.60 0.47 0.39 0.34 0.32 0.31 0.36 0.44 0.50 0.59 0.73 0.70 0.81 1.04 1.57 1.95 1.70 1.56 0.79 0.69 0.68 1.15 1.31 1.37 1.26 1.10 0.67 0.68 0.99 1.03 0.89 1.02 1.15 0.88 0.49 0.30 0.58 0.70 0.82 0.40 0.18 0.12 0.09 0.03 0.01 0.01 0.01 0.02 0.04 0.04 0.05 0.07 0.12 0.15
0.44 0.37 0.33 0.32 0.38 0.44 0.49 0.49 0.54 0.68 0.79 1.10 1.66 2.40 3.33 2.86 2.56 1.55 0.92 0.93 0.94 1.07 1.06 0.71 1.09 1.27 1.09 0.75 0.97 0.99 1.05 1.17 0.70 0.63 0.60 0.64 0.53 0.86 0.72 0.21 0.14 0.06 0.02 0.01 0.00 0.00 0.00 0.00 0.01 0.02 0.03 0.04 0.08 0.17
0.39 0.37 0.39 0.40 0.44 0.41 0.45 0.54 0.71 0.96 1.38 1.88 2.30 2.90 3.60 2.31 1.59 1.63 2.57 2.54 1.84 0.98 0.64 0.51 0.73 1.12 1.27 1.06 0.93 1.19 1.02 0.85 0.64 0.46 0.47 0.68 0.70 0.34 0.09 0.10 0.09 0.09 0.11 0.06 0.03 0.02 0.02 0.04 0.07 0.10 0.14 0.15 0.16 0.17
0.45 0.42 0.44 0.44 0.49 0.62 0.78 0.84 0.96 1.19 1.35 1.49 2.10 2.44 2.24 1.73 1.71 1.91 2.10 1.74 1.14 0.63 0.29 0.23 0.57 1.10 1.21 1.14 0.95 0.82 1.28 1.10 0.62 0.46 0.53 0.60 0.51 0.30 0.10 0.05 0.05 0.07 0.05 0.05 0.05 0.07 0.08 0.12 0.18 0.22 0.22 0.20 0.16 0.14
0.37 0.39 0.39 0.45 0.54 0.73 0.80 0.87 0.82 0.88 1.01 1.02 1.39 1.75 2.21 2.07 1.51 1.20 1.08 0.91 0.51 0.39 0.34 0.25 0.36 0.55 1.16 1.35 1.09 0.73 0.90 1.12 1.30 0.73 0.75 0.68 0.42 0.18 0.09 0.09 0.09 0.11 0.10 0.10 0.12 0.17 0.23 0.26 0.27 0.22 0.17 0.16 0.19 0.22
0.37 0.43 0.57 0.63 0.58 0.65 0.85 0.92 0.89 0.75 0.99 1.08 0.96 1.36 1.38 1.19 1.09 1.01 0.85 0.64 0.53 0.25 0.26 0.33 0.39 0.57 0.92 1.26 1.18 0.93 1.06 0.96 1.03 1.24 0.70 0.54 0.30 0.22 0.32 0.36 0.37 0.31 0.30 0.32 0.35 0.33 0.27 0.25 0.24 0.25 0.33 0.45 0.46 0.54
0.23 0.31 0.37 0.49 0.69 0.90 0.97 0.99 1.15 1.24 1.03 0.82 0.72 0.87 0.85 0.85 0.69 0.68 0.70 0.67 0.46 0.34 0.31 0.31 0.49 0.78 0.70 0.92 1.28 1.25 1.34 1.00 0.99 0.77 0.52 0.52 0.55 0.69 0.61 0.48 0.42 0.49 0.50 0.52 0.59 0.58 0.59 0.61 0.74 0.83 0.88 0.95 0.79 0.86
0.16 0.20 0.37 0.70 0.77 0.69 0.61 0.73 0.87 0.73 0.50 0.50 0.38 0.50 0.62 0.77 0.61 0.67 0.65 0.50 0.50 0.59 0.66 0.74 0.98 0.82 0.67 0.95 0.94 0.91 0.83 0.68 0.59 0.64 0.75 0.90 0.86 0.81 0.67 0.61 0.60 0.65 0.67 0.68 0.74 0.71 0.80 0.81 0.66 0.78 0.85 0.78 0.62 0.63
0.13 0.22 0.38 0.47 0.36 0.37 0.43 0.63 0.69 0.31 0.32 0.36 0.52 0.69 0.65 0.71 0.75 0.74 0.67 0.62 0.70 0.90 0.84 0.82 0.90 0.84 0.91 0.71 0.50 0.54 0.53 0.63 0.84 0.74 0.88 0.92 0.84 0.86 0.84 0.79 0.80 0.84 0.79 0.79 0.81 0.74 0.68 0.61 0.52 0.56 0.54 0.50 0.51 0.41
0.15 0.16 0.25 0.23 0.27 0.28 0.34 0.39 0.34 0.33 0.37 0.43 0.84 0.99 0.90 0.77 0.88 0.93 0.90 0.82 0.75 0.64 0.55 0.49 0.54 0.59 0.52 0.43 0.51 0.54 0.76 0.83 0.85 0.88 0.90 0.92 0.94 0.99 1.00 0.89 0.83 0.70 0.64 0.67 0.66 0.63 0.61 0.61 0.44 0.28 0.32 0.41 0.28 0.23
0.23 0.18 0.15 0.17 0.20 0.15 0.13 0.10 0.12 0.13 0.35 0.67 0.76 1.01 0.71 0.82 0.81 0.78 0.79 0.64 0.50 0.42 0.41 0.49 0.41 0.44 0.58 0.59 0.71 0.83 0.94 0.98 1.02 0.98 0.95 0.99 0.94 0.87 0.78 0.67 0.65 0.55 0.51 0.53 0.47 0.44 0.41 0.36 0.25 0.27 0.23 0.20 0.12 0.11
0.53 0.29 0.31 0.44 0.30 0.25 0.11 0.09 0.01 0.18 0.56 0.62 0.65 0.54 0.45 0.58 0.59 0.57 0.41 0.27 0.18 0.15 0.17 0.23 0.33 0.56 0.77 0.85 0.89 0.92 0.91 0.83 0.84 0.83 0.75 0.77 0.76 0.72 0.66 0.56 0.51 0.51 0.43 0.42 0.30 0.24 0.23 0.18 0.17 0.15 0.13 0.08 0.12 0.15
0.64 0.49 0.48 0.47 0.21 0.21 0.06 0.05 0.00 0.09 0.30 0.37 0.34 0.17 0.17 0.28 0.23 0.14 0.09 0.06 0.07 0.06 0.11 0.28 0.63 0.78 0.70 0.75 0.68 0.69 0.69 0.63 0.49 0.37 0.45 0.53 0.57 0.45 0.51 0.44 0.41 0.35 0.25 0.21 0.17 0.16 0.13 0.13 0.15 0.15 0.14 0.13 0.13 0.15
0.36 0.29 0.25 0.15 0.09 0.06 0.05 0.04 0.05 0.06 0.12 0.17 0.12 0.04 0.08 0.05 0.03 0.03 0.02 0.00 0.03 0.11 0.40 0.63 0.62 0.67 0.47 0.46 0.40 0.36 0.43 0.40 0.40 0.30 0.35 0.42 0.46 0.31 0.32 0.34 0.31 0.26 0.23 0.24 0.21 0.23 0.18 0.19 0.18 0.14 0.13 0.10 0.09 0.09
0.09 0.04 0.01 0.02 0.06 0.06 0.03 0.00 0.03 0.03 0.03 0.06 0.07 0.04 0.04 0.06 0.03 0.02 0.02 0.05 0.31 0.55 0.57 0.44 0.38 0.30 0.21 0.25 0.23 0.17 0.23 0.19 0.24 0.35 0.44 0.36 0.37 0.35 0.37 0.41 0.30 0.28 0.27 0.27 0.24 0.21 0.18 0.14 0.10 0.07 0.06 0.06 0.04 0.04
0.00 0.01 0.02 0.02 0.06 0.06 0.07 0.04 0.05 0.03 0.02 0.03 0.03 0.03 0.03 0.03 0.03 0.02 0.06 0.18 0.51 0.60 0.43 0.22 0.17 0.15 0.18 0.28 0.19 0.16 0.14 0.10 0.12 0.18 0.23 0.26 0.28 0.30 0.29 0.29 0.27 0.24 0.20 0.18 0.14 0.11 0.09 0.05 0.01 0.01 0.02 0.03 0.04 0.03
0.01 0.02 0.10 0.12 0.06 0.09 0.06 0.06 0.04 0.04 0.02 0.02 0.02 0.05 0.06 0.03 0.01 0.03 0.09 0.23 0.45 0.32 0.19 0.24 0.18 0.14 0.15 0.15 0.17 0.21 0.26 0.20 0.21 0.23 0.24 0.18 0.17 0.19 0.14 0.12 0.08 0.07 0.06 0.04 0.02 0.01 0.01 0.02 0.02 0.04 0.03 0.02 0.02 0.03
0.07 0.04 0.12 0.14 0.11 0.08 0.04 0.03 0.05 0.04 0.03 0.02 0.03 0.06 0.04 0.02 0.04 0.05 0.09 0.30 0.28 0.26 0.26 0.26 0.20 0.18 0.18 0.21 0.22 0.21 0.17 0.12 0.10 0.10 0.12 0.08 0.08 0.05 0.02 0.00 0.01 0.01 0.00 0.02 0.03 0.03 0.02 0.02 0.02 0.01 0.01 0.03 0.05 0.06
0.22 0.13 0.08 0.09 0.07 0.07 0.04 0.03 0.03 0.03 0.03 0.08 0.11 0.07 0.05 0.07 0.08 0.15 0.23 0.33 0.27 0.28 0.32 0.33 0.27 0.19 0.17 0.15 0.14 0.12 0.08 0.06 0.03 0.02 0.02 0.01 0.01 0.01 0.01 0.01 0.02 0.03 0.01 0.03 0.05 0.05 0.03 0.02 0.02 0.03 0.04 0.04 0.06 0.08
0.16 0.13 0.06 0.07 0.10 0.13 0.20 0.18 0.16 0.16 0.15 0.16 0.13 0.09 0.15 0.19 0.17 0.32 0.43 0.38 0.33 0.37 0.28 0.21 0.14 0.10 0.12 0.11 0.08 0.07 0.03 0.01 0.01 0.01 0.01 0.02 0.02 0.01 0.01 0.03 0.05 0.04 0.02 0.02 0.03 0.04 0.06 0.06 0.05 0.04 0.05 0.06 0.08 0.11
0.10 0.08 0.09 0.12 0.18 0.22 0.22 0.19 0.23 0.27 0.29 0.22 0.17 0.15 0.17 0.15 0.28 0.43 0.44 0.44 0.25 0.17 0.10 0.07 0.05 0.03 0.04 0.05 0.06 0.05 0.03 0.01 0.01 0.01 0.02 0.05 0.02 0.00 0.01 0.02 0.02 0.02 0.01 0.02 0.02 0.03 0.05 0.08 0.08 0.08 0.08 0.09 0.09 0.12
0.09 0.11 0.11 0.11 0.07 0.07 0.13 0.17 0.19 0.20 0.19 0.15 0.10 0.12 0.15 0.24 0.38 0.37 0.38 0.28 0.19 0.12 0.09 0.08 0.11 0.06 0.04 0.02 0.01 0.01 0.00 0.01 0.00 0.00 0.01 0.03 0.05 0.04 0.01 0.02 0.02 0.01 0.02 0.02 0.02 0.02 0.07 0.11 0.11 0.13 0.11 0.11 0.12 0.12
0.02 0.02 0.02 0.01 0.04 0.11 0.20 0.14 0.16 0.14 0.07 0.05 0.06 0.10 0.15 0.40 0.60 0.37 0.25 0.19 0.14 0.13 0.12 0.10 0.09 0.05 0.04 0.03 0.02 0.02 0.04 0.01 0.00 0.01 0.02 0.02 0.04 0.04 0.03 0.04 0.03 0.02 0.03 0.03 0.02 0.01 0.03 0.03 0.05 0.09 0.06 0.07 0.10 0.10
0.01 0.01 0.01 0.02 0.11 0.16 0.15 0.08 0.09 0.09 0.08 0.06 0.05 0.06 0.15 0.30 0.32 0.29 0.19 0.18 0.10 0.08 0.06 0.04 0.03 0.02 0.01 0.02 0.02 0.02 0.03 0.02 0.02 0.01 0.01 0.02 0.03 0.03 0.03 0.03 0.03 0.04 0.04 0.03 0.03 0.04 0.04 0.02 0.06 0.07 0.04 0.04 0.06 0.07
0.01 0.02 0.01 0.06 0.18 0.14 0.17 0.16 0.12 0.15 0.11 0.08 0.09 0.07 0.11 0.09 0.10 0.14 0.15 0.14 0.09 0.06 0.05 0.05 0.05 0.05 0.02 0.02 0.02 0.02 0.02 0.01 0.01 0.01 0.02 0.03 0.03 0.02 0.02 0.02 0.02 0.03 0.04 0.03 0.03 0.05 0.04 0.04 0.05 0.05 0.06 0.06 0.06 0.06
0.01 0.00 0.01 0.01 0.06 0.10 0.09 0.09 0.06 0.07 0.07 0.08 0.13 0.14 0.12 0.09 0.10 0.15 0.13 0.10 0.13 0.06 0.03 0.03 0.03 0.03 0.03 0.01 0.00 0.00 0.00 0.00 0.00 0.01 0.02 0.03 0.02 0.01 0.01 0.02 0.02 0.02 0.02 0.02 0.03 0.05 0.04 0.04 0.05 0.05 0.04 0.04 0.04 0.04

GFSWCAN_prec_precacc_084.txt.gz
Total_Precipitation_Accumulation
0.65 0.65 0.59 0.57 0.50 0.53 0.68 0.77 0.63 0.63 0.64 0.57 0.68 0.71 0.64 0.72 1.04 1.76 2.64 1.34 1.99 2.14 0.56 0.25 0.26 0.26 0.14 0.22 0.43 0.36 0.62 0.41 0.45 0.41 0.19 0.13 0.14 0.13 0.16 0.30 0.24 0.21 0.23 0.25 0.31 0.35 0.14 0.12 0.26 0.57 0.70 0.69 0.71 0.79
0.87 0.70 0.63 0.60 0.50 0.57 0.67 0.69 0.57 0.61 0.59 0.54 0.52 0.57 0.64 0.71 1.11 1.52 2.31 1.42 1.39 2.11 1.23 0.36 0.24 0.20 0.14 0.15 0.45 0.59 0.51 0.57 0.63 0.54 0.33 0.27 0.20 0.16 0.11 0.23 0.25 0.24 0.17 0.22 0.19 0.24 0.24 0.14 0.24 0.46 0.56 0.49 0.38 0.46
1.17 0.81 0.71 0.61 0.56 0.66 0.69 0.60 0.49 0.51 0.54 0.55 0.54 0.51 0.59 0.81 1.14 1.59 1.69 1.38 2.13 3.04 1.50 0.69 0.32 0.14 0.17 0.08 0.20 0.48 0.39 0.43 0.53 0.49 0.56 0.36 0.28 0.25 0.31 0.36 0.43 0.58 0.24 0.32 0.28 0.52 0.18 0.10 0.17 0.18 0.21 0.22 0.12 0.12
1.11 0.87 0.58 0.52 0.52 0.60 0.55 0.44 0.42 0.48 0.52 0.57 0.54 0.67 0.68 1.01 1.14 1.64 1.43 1.70 2.25 2.15 1.60 0.73 0.48 0.28 0.18 0.22 0.18 0.22 0.25 0.36 0.44 0.56 0.61 0.54 0.45 0.39 0.65 0.47 0.50 0.90 0.46 0.46 0.62 1.29 0.61 0.55 0.57 0.44 0.18 0.15 0.08 0.07
0.81 0.65 0.52 0.46 0.46 0.52 0.51 0.53 0.53 0.52 0.61 0.61 0.59 0.77 1.06 1.14 1.42 1.89 1.36 1.62 1.91 1.97 1.63 0.88 0.42 0.33 0.22 0.18 0.17 0.20 0.25 0.35 0.49 0.62 0.53 0.31 0.24 0.45 0.91 0.50 0.55 0.66 0.81 0.73 0.86 1.10 0.93 0.74 0.47 0.33 0.15 0.07 0.04 0.03
0.68 0.59 0.48 0.46 0.42 0.45 0.40 0.48 0.58 0.65 0.56 0.64 0.75 0.92 1.07 1.19 2.26 3.24 4.12 2.72 1.57 1.62 1.84 1.40 0.51 0.24 0.28 0.28 0.33 0.23 0.32 0.45 0.55 0.50 0.38 0.37 0.31 0.69 0.96 0.61 0.64 0.72 0.92 0.75 0.71 0.75 0.59 0.41 0.23 0.13 0.06 0.03 0.02 0.01
0.68 0.60 0.48 0.41 0.33 0.31 0.35 0.41 0.46 0.54 0.74 0.81 0.86 0.82 1.12 1.87 2.31 1.89 1.78 1.45 0.96 1.36 1.90 1.42 0.93 0.43 0.38 0.51 0.92 0.70 0.61 0.72 0.81 0.67 0.39 0.26 0.39 0.73 0.90 0.73 0.65 0.65 0.61 0.46 0.37 0.29 0.20 0.15 0.09 0.04 0.04 0.05 0.04 0.03
0.60 0.47 0.39 0.35 0.32 0.31 0.36 0.44 0.50 0.59 0.74 0.72 0.84 1.08 1.64 2.07 1.73 1.57 0.79 0.69 0.68 1.19 1.32 1.37 1.26 1.10 0.67 0.68 0.99 1.03 0.89 1.03 1.15 0.88 0.49 0.31 0.62 0.79 0.90 0.48 0.24 0.18 0.16 0.09 0.07 0.03 0.03 0.03 0.04 0.04 0.05 0.07 0.12 0.15
0.44 0.37 0.34 0.32 0.38 0.44 0.50 0.49 0.54 0.69 0.82 1.14 1.71 2.47 3.55 3.10 2.62 1.56 0.93 0.96 0.96 1.10 1.06 0.72 1.09 1.27 1.09 0.76 0.97 1.00 1.05 1.17 0.70 0.63 0.60 0.65 0.55 0.88 0.74 0.22 0.14 0.06 0.02 0.01 0.00 0.00 0.00 0.00 0.01 0.02 0.03 0.04 0.08 0.17
0.39 0.37 0.40 0.41 0.44 0.42 0.46 0.56 0.73 0.98 1.42 1.97 2.37 3.03 3.78 2.39 1.62 1.70 2.80 2.73 1.99 1.08 0.66 0.52 0.73 1.12 1.31 1.10 0.93 1.19 1.02 0.85 0.66 0.47 0.47 0.69 0.70 0.35 0.09 0.10 0.09 0.09 0.11 0.06 0.03 0.03 0.03 0.04 0.07 0.10 0.14 0.15 0.16 0.17
0.45 0.42 0.44 0.44 0.49 0.62 0.79 0.87 0.98 1.24 1.50 1.65 2.18 2.54 2.29 1.78 1.79 2.03 2.16 1.80 1.18 0.64 0.29 0.24 0.57 1.10 1.25 1.22 0.95 0.84 1.32 1.11 0.62 0.47 0.54 0.61 0.51 0.30 0.11 0.06 0.05 0.07 0.05 0.05 0.05 0.07 0.08 0.12 0.18 0.22 0.22 0.20 0.16 0.14
0.38 0.39 0.40 0.45 0.55 0.74 0.82 0.90 0.87 0.98 1.19 1.07 1.42 1.83 2.28 2.18 1.68 1.28 1.09 0.92 0.51 0.39 0.34 0.25 0.37 0.55 1.16 1.41 1.11 0.75 0.95 1.16 1.32 0.77 0.77 0.68 0.42 0.19 0.09 0.10 0.10 0.11 0.10 0.10 0.12 0.17 0.23 0.26 0.27 0.22 0.17 0.16 0.19 0.22
0.38 0.45 0.58 0.65 0.60 0.68 0.88 0.99 1.02 0.87 1.05 1.10 1.00 1.45 1.48 1.31 1.15 1.02 0.86 0.65 0.53 0.25 0.26 0.33 0.40 0.57 0.92 1.32 1.25 0.93 1.07 0.98 1.04 1.25 0.70 0.55 0.30 0.22 0.32 0.36 0.37 0.31 0.30 0.32 0.35 0.33 0.27 0.25 0.24 0.25 0.33 0.45 0.46 0.54
0.33 0.35 0.40 0.53 0.72 0.94 1.11 1.23 1.33 1.30 1.04 0.87 0.79 0.96 0.91 0.88 0.70 0.68 0.70 0.67 0.46 0.34 0.31 0.32 0.49 0.80 0.77 0.96 1.29 1.25 1.34 1.01 0.99 0.77 0.52 0.53 0.55 0.69 0.61 0.48 0.42 0.49 0.50 0.52 0.59 0.58 0.59 0.61 0.74 0.83 0.88 0.95 0.79 0.86
0.20 0.22 0.41 0.80 0.93 0.93 0.93 0.98 1.03 0.78 0.52 0.53 0.40 0.51 0.62 0.77 0.61 0.68 0.65 0.50 0.51 0.59 0.66 0.74 0.99 0.87 0.69 0.95 0.94 0.91 0.84 0.68 0.59 0.64 0.75 0.91 0.86 0.82 0.67 0.61 0.60 0.65 0.67 0.68 0.74 0.71 0.80 0.81 0.66 0.78 0.85 0.78 0.62 0.63
0.14 0.28 0.47 0.57 0.43 0.50 0.56 0.70 0.73 0.33 0.32 0.36 0.52 0.69 0.65 0.71 0.76 0.74 0.67 0.62 0.71 0.90 0.85 0.83 0.91 0.84 0.91 0.71 0.50 0.54 0.53 0.63 0.84 0.74 0.88 0.92 0.84 0.87 0.84 0.79 0.80 0.84 0.79 0.79 0.81 0.74 0.68 0.61 0.52 0.56 0.54 0.50 0.51 0.41
0.15 0.22 0.41 0.39 0.39 0.37 0.40 0.41 0.36 0.34 0.37 0.43 0.85 1.00 0.90 0.77 0.88 0.94 0.91 0.82 0.78 0.65 0.56 0.49 0.54 0.59 0.52 0.43 0.51 0.54 0.76 0.83 0.85 0.89 0.90 0.92 0.94 0.99 1.00 0.89 0.83 0.70 0.64 0.67 0.66 0.63 0.61 0.61 0.44 0.28 0.32 0.41 0.28 0.23
0.23 0.20 0.24 0.30 0.26 0.19 0.16 0.12 0.12 0.13 0.35 0.67 0.76 1.01 0.71 0.82 0.82 0.78 0.80 0.64 0.51 0.42 0.41 0.49 0.41 0.44 0.58 0.59 0.71 0.83 0.94 0.99 1.02 0.98 0.96 0.99 0.94 0.87 0.78 0.67 0.65 0.55 0.51 0.53 0.47 0.44 0.42 0.36 0.25 0.28 0.23 0.20 0.12 0.11
0.53 0.30 0.34 0.46 0.31 0.27 0.11 0.09 0.01 0.18 0.56 0.63 0.66 0.54 0.45 0.58 0.60 0.57 0.41 0.27 0.18 0.15 0.17 0.23 0.33 0.56 0.77 0.85 0.89 0.92 0.91 0.83 0.85 0.83 0.75 0.77 0.76 0.72 0.66 0.56 0.51 0.51 0.43 0.42 0.30 0.24 0.23 0.18 0.17 0.15 0.13 0.09 0.12 0.16
0.67 0.50 0.48 0.47 0.21 0.21 0.06 0.05 0.00 0.09 0.30 0.38 0.34 0.17 0.17 0.29 0.24 0.15 0.09 0.06 0.07 0.06 0.11 0.28 0.63 0.78 0.70 0.75 0.68 0.69 0.69 0.63 0.49 0.37 0.46 0.53 0.58 0.45 0.51 0.44 0.41 0.35 0.25 0.21 0.17 0.16 0.13 0.13 0.15 0.15 0.14 0.13 0.14 0.15
0.42 0.33 0.26 0.16 0.09 0.06 0.05 0.04 0.05 0.06 0.12 0.17 0.12 0.04 0.08 0.05 0.03 0.03 0.02 0.00 0.03 0.11 0.40 0.63 0.63 0.68 0.48 0.46 0.40 0.36 0.43 0.40 0.40 0.30 0.35 0.43 0.47 0.31 0.32 0.34 0.31 0.26 0.23 0.24 0.21 0.23 0.18 0.19 0.18 0.14 0.13 0.10 0.09 0.09
0.12 0.05 0.01 0.02 0.06 0.06 0.03 0.00 0.03 0.03 0.03 0.06 0.08 0.04 0.04 0.06 0.03 0.02 0.02 0.05 0.31 0.56 0.57 0.44 0.38 0.31 0.21 0.25 0.23 0.17 0.23 0.19 0.24 0.35 0.44 0.36 0.37 0.35 0.37 0.41 0.30 0.28 0.27 0.27 0.24 0.21 0.18 0.14 0.10 0.07 0.06 0.06 0.04 0.04
0.01 0.01 0.02 0.02 0.06 0.06 0.08 0.05 0.05 0.03 0.02 0.04 0.03 0.03 0.03 0.03 0.03 0.02 0.06 0.18 0.51 0.61 0.43 0.23 0.17 0.15 0.18 0.28 0.19 0.16 0.14 0.10 0.12 0.18 0.23 0.26 0.28 0.30 0.29 0.29 0.27 0.24 0.20 0.18 0.14 0.11 0.09 0.05 0.01 0.01 0.02 0.03 0.04 0.03
0.01 0.02 0.10 0.12 0.07 0.10 0.07 0.06 0.04 0.04 0.03 0.02 0.02 0.05 0.06 0.03 0.01 0.03 0.09 0.23 0.46 0.33 0.20 0.24 0.18 0.15 0.15 0.15 0.17 0.21 0.26 0.20 0.21 0.23 0.24 0.18 0.17 0.19 0.14 0.12 0.08 0.07 0.06 0.04 0.02 0.01 0.01 0.02 0.02 0.04 0.03 0.02 0.02 0.03
0.07 0.04 0.12 0.14 0.11 0.08 0.04 0.03 0.05 0.04 0.03 0.02 0.03 0.06 0.04 0.02 0.04 0.05 0.09 0.30 0.29 0.27 0.27 0.26 0.20 0.18 0.18 0.21 0.22 0.21 0.17 0.12 0.10 0.10 0.12 0.08 0.08 0.05 0.02 0.00 0.01 0.01 0.00 0.02 0.03 0.03 0.02 0.02 0.02 0.01 0.01 0.03 0.05 0.06
0.22 0.13 0.08 0.09 0.07 0.07 0.04 0.03 0.03 0.03 0.03 0.08 0.11 0.08 0.05 0.07 0.08 0.15 0.23 0.33 0.28 0.29 0.32 0.33 0.27 0.19 0.17 0.15 0.14 0.12 0.08 0.06 0.03 0.02 0.02 0.01 0.01 0.01 0.01 0.01 0.02 0.03 0.01 0.03 0.05 0.05 0.03 0.02 0.02 0.03 0.04 0.05 0.06 0.08
0.16 0.13 0.07 0.07 0.10 0.13 0.20 0.18 0.16 0.16 0.15 0.16 0.13 0.10 0.15 0.19 0.17 0.32 0.43 0.38 0.33 0.37 0.28 0.21 0.14 0.10 0.12 0.11 0.08 0.07 0.03 0.01 0.01 0.01 0.01 0.02 0.02 0.01 0.01 0.03 0.05 0.04 0.02 0.02 0.03 0.04 0.06 0.06 0.05 0.04 0.05 0.06 0.08 0.11
0.10 0.08 0.10 0.12 0.18 0.22 0.22 0.19 0.23 0.27 0.29 0.23 0.17 0.15 0.17 0.15 0.28 0.44 0.45 0.44 0.26 0.17 0.10 0.07 0.05 0.03 0.04 0.05 0.06 0.05 0.03 0.01 0.01 0.01 0.02 0.05 0.02 0.00 0.01 0.02 0.02 0.02 0.01 0.02 0.02 0.03 0.05 0.08 0.08 0.08 0.08 0.09 0.09 0.12
0.09 0.11 0.11 0.11 0.07 0.07 0.13 0.17 0.19 0.21 0.20 0.15 0.10 0.12 0.16 0.25 0.39 0.38 0.39 0.28 0.19 0.12 0.09 0.08 0.11 0.06 0.04 0.02 0.01 0.01 0.00 0.01 0.00 0.00 0.01 0.03 0.05 0.04 0.02 0.02 0.02 0.01 0.02 0.02 0.02 0.02 0.07 0.11 0.11 0.13 0.11 0.11 0.12 0.12
0.02 0.02 0.02 0.01 0.04 0.11 0.20 0.14 0.16 0.14 0.07 0.06 0.06 0.10 0.16 0.41 0.63 0.40 0.26 0.19 0.14 0.13 0.12 0.10 0.09 0.05 0.04 0.03 0.02 0.02 0.04 0.01 0.00 0.01 0.02 0.02 0.04 0.04 0.03 0.04 0.03 0.02 0.03 0.03 0.02 0.01 0.03 0.03 0.05 0.09 0.06 0.07 0.10 0.10
0.01 0.01 0.01 0.02 0.11 0.17 0.16 0.08 0.09 0.09 0.08 0.06 0.05 0.06 0.16 0.31 0.35 0.32 0.22 0.20 0.10 0.08 0.06 0.04 0.03 0.02 0.01 0.02 0.02 0.02 0.03 0.02 0.02 0.01 0.01 0.02 0.03 0.03 0.03 0.03 0.03 0.04 0.04 0.03 0.03 0.04 0.04 0.02 0.06 0.07 0.04 0.04 0.06 0.07
0.01 0.02 0.01 0.06 0.18 0.14 0.17 0.16 0.12 0.15 0.11 0.08 0.09 0.07 0.11 0.09 0.10 0.15 0.16 0.15 0.09 0.06 0.05 0.05 0.05 0.05 0.02 0.02 0.02 0.02 0.02 0.01 0.01 0.01 0.02 0.03 0.03 0.03 0.02 0.02 0.02 0.03 0.04 0.03 0.03 0.05 0.04 0.04 0.05 0.05 0.06 0.06 0.06 0.06
0.01 0.00 0.01 0.01 0.07 0.10 0.10 0.09 0.06 0.07 0.08 0.09 0.13 0.14 0.12 0.09 0.10 0.15 0.13 0.10 0.13 0.06 0.03 0.03 0.03 0.03 0.03 0.01 0.00 0.00 0.00 0.00 0.00 0.01 0.02 0.03 0.02 0.01 0.01 0.02 0.02 0.02 0.02 0.02 0.03 0.05 0.04 0.04 0.05 0.05 0.04 0.04 0.04 0.04

GFSWCAN_prec_precacc_087.txt.gz
Total_Precipitation_Accumulation
0.66 0.66 0.59 0.58 0.50 0.54 0.69 0.77 0.64 0.64 0.64 0.57 0.68 0.72 0.65 0.73 1.08 1.79 2.66 1.38 2.04 2.15 0.56 0.25 0.26 0.26 0.14 0.22 0.43 0.36 0.62 0.42 0.45 0.42 0.19 0.13 0.14 0.13 0.16 0.30 0.24 0.21 0.23 0.25 0.31 0.35 0.14 0.12 0.26 0.58 0.76 0.84 0.88 1.07
0.88 0.71 0.64 0.62 0.51 0.57 0.68 0.69 0.57 0.61 0.59 0.54 0.53 0.59 0.65 0.72 1.14 1.55 2.33 1.44 1.41 2.12 1.23 0.36 0.24 0.20 0.14 0.15 0.45 0.59 0.51 0.60 0.65 0.57 0.36 0.29 0.21 0.16 0.11 0.23 0.25 0.28 0.22 0.25 0.21 0.25 0.27 0.16 0.26 0.51 0.60 0.61 0.57 0.69
1.18 0.82 0.72 0.62 0.58 0.67 0.69 0.60 0.49 0.51 0.55 0.56 0.55 0.52 0.60 0.81 1.16 1.62 1.69 1.40 2.19 3.07 1.50 0.69 0.32 0.14 0.17 0.08 0.20 0.48 0.39 0.43 0.53 0.50 0.59 0.39 0.29 0.26 0.33 0.38 0.43 0.59 0.26 0.38 0.43 0.61 0.22 0.13 0.20 0.26 0.32 0.39 0.31 0.32
1.11 0.88 0.60 0.54 0.53 0.60 0.55 0.44 0.43 0.49 0.52 0.57 0.54 0.68 0.71 1.03 1.16 1.68 1.43 1.70 2.25 2.15 1.60 0.73 0.48 0.28 0.18 0.22 0.18 0.22 0.25 0.36 0.44 0.56 0.62 0.55 0.46 0.43 0.75 0.49 0.50 0.91 0.48 0.51 0.73 1.36 0.65 0.58 0.63 0.55 0.34 0.31 0.23 0.22
0.81 0.66 0.54 0.47 0.47 0.52 0.51 0.53 0.53 0.53 0.61 0.61 0.60 0.78 1.15 1.20 1.46 1.92 1.36 1.62 1.91 1.97 1.63 0.88 0.42 0.33 0.22 0.18 0.17 0.20 0.25 0.35 0.49 0.62 0.54 0.31 0.25 0.51 0.97 0.52 0.56 0.67 0.86 0.78 0.91 1.18 1.00 0.82 0.57 0.43 0.25 0.17 0.11 0.06
0.69 0.60 0.50 0.47 0.42 0.45 0.40 0.49 0.58 0.65 0.56 0.64 0.75 0.94 1.12 1.25 2.32 3.30 4.18 2.73 1.57 1.62 1.85 1.40 0.51 0.24 0.28 0.28 0.33 0.23 0.32 0.45 0.55 0.50 0.38 0.37 0.31 0.77 1.05 0.66 0.67 0.74 1.00 0.88 0.80 0.84 0.69 0.52 0.33 0.22 0.12 0.09 0.05 0.02
0.70 0.62 0.49 0.42 0.34 0.31 0.35 0.42 0.46 0.54 0.74 0.82 0.87 0.84 1.16 1.98 2.39 1.91 1.79 1.45 0.96 1.37 1.92 1.42 0.93 0.43 0.38 0.51 0.92 0.70 0.61 0.72 0.81 0.67 0.39 0.26 0.40 0.75 0.95 0.79 0.69 0.70 0.69 0.55 0.47 0.36 0.29 0.24 0.15 0.09 0.06 0.06 0.04 0.03
0.62 0.48 0.40 0.35 0.32 0.31 0.36 0.44 0.50 0.59 0.74 0.73 0.86 1.11 1.69 2.20 1.88 1.60 0.79 0.69 0.68 1.20 1.33 1.38 1.26 1.10 0.67 0.68 0.99 1.03 0.89 1.03 1.15 0.88 0.49 0.31 0.63 0.81 0.97 0.55 0.30 0.23 0.22 0.15 0.12 0.06 0.05 0.05 0.05 0.04 0.05 0.07 0.12 0.15
0.45 0.38 0.34 0.33 0.38 0.44 0.50 0.50 0.54 0.69 0.82 1.16 1.76 2.55 3.72 3.25 2.69 1.58 0.93 0.97 0.97 1.14 1.08 0.72 1.09 1.27 1.09 0.77 0.98 1.00 1.05 1.17 0.70 0.63 0.60 0.65 0.55 0.88 0.76 0.23 0.15 0.07 0.03 0.03 0.02 0.00 0.00 0.00 0.01 0.02 0.03 0.04 0.08 0.17
0.39 0.37 0.40 0.41 0.44 0.42 0.46 0.56 0.73 0.98 1.43 2.05 2.48 3.11 3.91 2.43 1.64 1.74 2.92 2.81 2.07 1.17 0.68 0.52 0.73 1.12 1.32 1.16 0.93 1.19 1.02 0.85 0.67 0.47 0.48 0.69 0.71 0.35 0.09 0.11 0.09 0.09 0.11 0.06 0.03 0.03 0.03 0.04 0.07 0.10 0.15 0.15 0.16 0.17
0.45 0.42 0.45 0.44 0.50 0.63 0.79 0.87 0.99 1.26 1.62 1.85 2.27 2.57 2.32 1.83 1.85 2.21 2.22 1.84 1.20 0.67 0.30 0.24 0.57 1.10 1.25 1.26 0.96 0.85 1.34 1.12 0.63 0.47 0.56 0.61 0.51 0.31 0.11 0.06 0.05 0.07 0.05 0.05 0.05 0.07 0.08 0.12 0.18 0.22 0.22 0.20 0.16 0.14
0.39 0.39 0.41 0.46 0.55 0.75 0.83 0.92 0.90 1.07 1.32 1.17 1.45 1.87 2.36 2.26 1.79 1.39 1.12 0.93 0.51 0.39 0.34 0.25 0.37 0.55 1.16 1.43 1.12 0.75 1.00 1.18 1.33 0.78 0.77 0.68 0.43 0.19 0.09 0.10 0.10 0.11 0.10 0.10 0.12 0.17 0.23 0.26 0.27 0.22 0.17 0.16 0.19 0.22
0.39 0.45 0.59 0.66 0.61 0.69 0.90 1.01 1.07 0.98 1.15 1.15 1.07 1.57 1.54 1.35 1.24 1.07 0.86 0.65 0.53 0.25 0.26 0.33 0.40 0.57 0.92 1.35 1.33 0.95 1.10 1.02 1.05 1.26 0.70 0.55 0.31 0.22 0.32 0.36 0.37 0.31 0.30 0.32 0.35 0.33 0.27 0.25 0.24 0.25 0.33 0.45 0.46 0.54
0.38 0.44 0.41 0.54 0.72 0.95 1.13 1.25 1.46 1.43 1.20 0.96 0.85 1.04 0.93 0.91 0.71 0.68 0.70 0.67 0.46 0.34 0.31 0.32 0.49 0.80 0.78 0.97 1.35 1.26 1.35 1.01 1.00 0.77 0.52 0.53 0.55 0.69 0.61 0.48 0.42 0.49 0.50 0.52 0.59 0.58 0.59 0.61 0.74 0.83 0.88 0.95 0.79 0.86
0.38 0.27 0.43 0.81 0.94 0.96 0.97 1.08 1.23 0.84 0.68 0.64 0.41 0.52 0.62 0.77 0.61 0.68 0.65 0.50 0.51 0.59 0.66 0.74 1.00 0.90 0.71 0.96 0.95 0.91 0.84 0.68 0.60 0.64 0.75 0.91 0.86 0.82 0.67 0.61 0.60 0.65 0.67 0.68 0.74 0.71 0.80 0.81 0.66 0.78 0.85 0.78 0.62 0.63
0.16 0.32 0.56 0.59 0.46 0.63 0.78 0.98 0.93 0.39 0.38 0.38 0.52 0.69 0.66 0.71 0.76 0.75 0.67 0.62 0.71 0.90 0.86 0.84 0.94 0.88 0.93 0.71 0.50 0.54 0.53 0.63 0.84 0.74 0.89 0.92 0.84 0.87 0.84 0.79 0.80 0.84 0.79 0.79 0.81 0.74 0.68 0.61 0.52 0.56 0.54 0.50 0.51 0.41
0.16 0.32 0.59 0.46 0.51 0.59 0.61 0.56 0.52 0.45 0.41 0.43 0.85 1.00 0.90 0.77 0.88 0.94 0.91 0.83 0.78 0.66 0.57 0.50 0.54 0.59 0.52 0.43 0.51 0.54 0.76 0.83 0.85 0.89 0.90 0.92 0.94 0.99 1.00 0.89 0.83 0.70 0.64 0.67 0.66 0.63 0.61 0.61 0.44 0.28 0.32 0.41 0.28 0.23
0.25 0.30 0.37 0.39 0.36 0.29 0.22 0.17 0.18 0.16 0.35 0.67 0.76 1.02 0.71 0.83 0.82 0.79 0.81 0.66 0.52 0.43 0.41 0.49 0.41 0.44 0.58 0.59 0.71 0.83 0.94 0.99 1.02 0.98 0.96 0.99 0.94 0.87 0.78 0.67 0.65 0.55 0.51 0.53 0.47 0.44 0.42 0.36 0.25 0.28 0.23 0.20 0.12 0.11
0.54 0.36 0.45 0.55 0.37 0.30 0.15 0.10 0.01 0.18 0.57 0.63 0.67 0.55 0.45 0.58 0.60 0.58 0.42 0.27 0.18 0.15 0.17 0.23 0.33 0.56 0.77 0.85 0.89 0.92 0.91 0.83 0.85 0.83 0.75 0.77 0.76 0.72 0.66 0.56 0.51 0.51 0.43 0.42 0.30 0.24 0.23 0.18 0.18 0.15 0.13 0.09 0.12 0.16
0.68 0.54 0.54 0.50 0.22 0.21 0.06 0.05 0.00 0.09 0.31 0.38 0.34 0.18 0.17 0.29 0.24 0.15 0.09 0.06 0.07 0.06 0.11 0.28 0.63 0.78 0.70 0.75 0.68 0.69 0.69 0.63 0.49 0.37 0.46 0.54 0.58 0.45 0.51 0.44 0.41 0.35 0.25 0.21 0.17 0.16 0.13 0.13 0.15 0.15 0.14 0.13 0.14 0.15
0.42 0.33 0.26 0.16 0.10 0.06 0.05 0.04 0.05 0.06 0.12 0.17 0.12 0.04 0.09 0.05 0.04 0.03 0.02 0.00 0.03 0.11 0.40 0.63 0.63 0.68 0.48 0.46 0.40 0.36 0.43 0.40 0.40 0.30 0.35 0.43 0.47 0.31 0.32 0.34 0.31 0.26 0.23 0.24 0.21 0.23 0.18 0.19 0.18 0.14 0.13 0.10 0.09 0.09
0.13 0.06 0.01 0.02 0.06 0.06 0.03 0.00 0.03 0.03 0.04 0.07 0.08 0.04 0.04 0.06 0.04 0.02 0.02 0.05 0.31 0.56 0.58 0.45 0.39 0.31 0.21 0.25 0.23 0.17 0.23 0.19 0.24 0.35 0.44 0.36 0.37 0.35 0.37 0.41 0.30 0.28 0.27 0.27 0.24 0.21 0.18 0.14 0.10 0.07 0.06 0.06 0.04 0.04
0.02 0.02 0.02 0.02 0.06 0.06 0.08 0.05 0.05 0.03 0.02 0.04 0.03 0.03 0.03 0.03 0.03 0.02 0.06 0.18 0.51 0.61 0.43 0.23 0.18 0.15 0.18 0.28 0.19 0.16 0.14 0.10 0.12 0.18 0.23 0.26 0.28 0.30 0.29 0.29 0.27 0.24 0.20 0.18 0.14 0.11 0.09 0.05 0.01 0.01 0.02 0.03 0.04 0.03
0.01 0.04 0.12 0.12 0.07 0.10 0.07 0.06 0.04 0.04 0.03 0.02 0.02 0.05 0.06 0.03 0.01 0.03 0.09 0.23 0.46 0.34 0.20 0.24 0.18 0.15 0.15 0.15 0.17 0.21 0.26 0.20 0.21 0.23 0.24 0.18 0.17 0.19 0.14 0.12 0.08 0.07 0.06 0.04 0.02 0.01 0.01 0.02 0.02 0.04 0.03 0.02 0.02 0.03
0.08 0.06 0.15 0.16 0.12 0.08 0.04 0.04 0.05 0.04 0.03 0.02 0.03 0.06 0.04 0.02 0.04 0.05 0.09 0.30 0.29 0.28 0.27 0.26 0.20 0.18 0.18 0.21 0.22 0.21 0.17 0.12 0.10 0.10 0.12 0.08 0.08 0.05 0.02 0.00 0.01 0.01 0.00 0.02 0.03 0.03 0.02 0.02 0.02 0.01 0.01 0.03 0.05 0.06
0.22 0.14 0.10 0.11 0.07 0.07 0.04 0.03 0.03 0.03 0.03 0.08 0.11 0.08 0.05 0.07 0.08 0.15 0.23 0.33 0.28 0.29 0.33 0.33 0.27 0.19 0.17 0.15 0.14 0.12 0.08 0.06 0.03 0.02 0.02 0.01 0.01 0.01 0.01 0.01 0.02 0.03 0.01 0.03 0.05 0.05 0.03 0.02 0.02 0.03 0.04 0.05 0.06 0.08
0.16 0.13 0.07 0.07 0.11 0.13 0.20 0.18 0.16 0.16 0.15 0.16 0.13 0.10 0.15 0.19 0.17 0.32 0.43 0.38 0.33 0.37 0.28 0.21 0.14 0.10 0.12 0.11 0.08 0.07 0.03 0.01 0.01 0.01 0.01 0.02 0.02 0.01 0.01 0.03 0.05 0.04 0.02 0.02 0.03 0.04 0.06 0.06 0.05 0.04 0.05 0.06 0.08 0.11
0.10 0.08 0.10 0.12 0.18 0.22 0.22 0.19 0.23 0.27 0.29 0.23 0.17 0.15 0.17 0.15 0.28 0.44 0.45 0.45 0.26 0.17 0.10 0.07 0.05 0.03 0.04 0.05 0.06 0.05 0.03 0.01 0.01 0.01 0.02 0.05 0.02 0.00 0.01 0.02 0.02 0.02 0.01 0.02 0.02 0.03 0.05 0.08 0.08 0.08 0.08 0.09 0.09 0.12
0.09 0.11 0.11 0.11 0.07 0.07 0.13 0.17 0.19 0.21 0.20 0.16 0.10 0.12 0.16 0.25 0.39 0.39 0.40 0.29 0.19 0.12 0.09 0.08 0.11 0.06 0.04 0.02 0.01 0.01 0.00 0.01 0.00 0.00 0.01 0.03 0.05 0.04 0.02 0.02 0.02 0.01 0.02 0.02 0.02 0.02 0.07 0.11 0.12 0.13 0.11 0.11 0.12 0.12
0.02 0.02 0.02 0.01 0.04 0.11 0.21 0.15 0.17 0.15 0.08 0.06 0.06 0.10 0.16 0.42 0.64 0.42 0.27 0.20 0.14 0.13 0.12 0.10 0.09 0.05 0.04 0.03 0.02 0.02 0.04 0.01 0.00 0.01 0.02 0.02 0.04 0.04 0.03 0.04 0.03 0.02 0.03 0.03 0.02 0.01 0.03 0.03 0.05 0.09 0.06 0.07 0.10 0.10
0.01 0.01 0.01 0.02 0.11 0.17 0.16 0.09 0.09 0.09 0.08 0.06 0.05 0.06 0.16 0.32 0.37 0.35 0.24 0.22 0.11 0.08 0.06 0.04 0.03 0.02 0.01 0.02 0.02 0.02 0.03 0.02 0.02 0.01 0.01 0.02 0.03 0.03 0.03 0.03 0.03 0.04 0.04 0.03 0.03 0.04 0.04 0.02 0.06 0.07 0.04 0.04 0.06 0.07
0.01 0.02 0.01 0.06 0.18 0.15 0.18 0.16 0.12 0.16 0.12 0.08 0.09 0.07 0.11 0.09 0.11 0.16 0.18 0.17 0.11 0.07 0.05 0.05 0.05 0.05 0.02 0.02 0.02 0.02 0.02 0.01 0.01 0.01 0.02 0.03 0.03 0.03 0.02 0.02 0.02 0.03 0.04 0.03 0.03 0.05 0.04 0.04 0.05 0.05 0.06 0.06 0.06 0.06
0.01 0.00 0.01 0.01 0.07 0.10 0.10 0.09 0.06 0.07 0.08 0.09 0.14 0.14 0.12 0.09 0.10 0.15 0.14 0.11 0.14 0.07 0.03 0.03 0.03 0.03 0.03 0.01 0.00 0.00 0.00 0.00 0.00 0.01 0.02 0.03 0.02 0.01 0.01 0.02 0.02 0.02 0.02 0.02 0.03 0.05 0.04 0.04 0.05 0.05 0.04 0.04 0.04 0.04